Observation data for Bootleg on 12/10/2018      Previous  Date       Current Mesonet Observations  Soil Data  Daily Summary Page  Observations in Plain Language
KBO1 100600Z 24009KT M05/M10 A3039 RMK A01 T10451100  RH  066%=      5-min Rain = 0
KBO1 100601Z 24009KT M05/M10 A3039 RMK A01 T10451099  RH  066%=      5-min Rain = 0
KBO1 100602Z 24009KT M05/M10 A3039 RMK A01 T10461099  RH  066%=      5-min Rain = 0
KBO1 100603Z 24010KT M05/M10 A3039 RMK A01 T10471100  RH  067%=      5-min Rain = 0
KBO1 100604Z 24009KT M05/M10 A3039 RMK A01 T10471099  RH  067%=      5-min Rain = 0
KBO1 100605Z 24009KT M05/M10 A3039 RMK A01 T10471098  RH  067%=      5-min Rain = 0
KBO1 100606Z 24009KT M05/M10 A3039 RMK A01 T10471098  RH  067%=      5-min Rain = 0
KBO1 100607Z 24008KT M05/M10 A3039 RMK A01 T10471098  RH  068%=      5-min Rain = 0
KBO1 100608Z 24008KT M05/M10 A3039 RMK A01 T10461097  RH  068%=      5-min Rain = 0
KBO1 100609Z 24008KT M05/M10 A3038 RMK A01 T10461096  RH  068%=      5-min Rain = 0
KBO1 100610Z 25008KT M05/M10 A3038 RMK A01 T10461096  RH  068%=      5-min Rain = 0
KBO1 100611Z 25008KT M05/M10 A3038 RMK A01 T10451096  RH  068%=      5-min Rain = 0
KBO1 100612Z 25008KT M04/M10 A3038 RMK A01 T10441095  RH  067%=      5-min Rain = 0
KBO1 100613Z 25008KT M04/M10 A3038 RMK A01 T10431095  RH  067%=      5-min Rain = 0
KBO1 100614Z 25008KT M04/M10 A3038 RMK A01 T10431095  RH  067%=      5-min Rain = 0
KBO1 100615Z 25008KT M04/M10 A3038 RMK A01 T10431095  RH  067%=      5-min Rain = 0
KBO1 100616Z 25008KT M04/M10 A3038 RMK A01 T10431096  RH  066%=      5-min Rain = 0
KBO1 100617Z 25008KT M04/M10 A3038 RMK A01 T10421096  RH  066%=      5-min Rain = 0
KBO1 100618Z 24008KT M04/M10 A3038 RMK A01 T10421096  RH  066%=      5-min Rain = 0
KBO1 100619Z 25008KT M04/M10 A3038 RMK A01 T10421096  RH  066%=      5-min Rain = 0
KBO1 100620Z 25008KT M04/M10 A3038 RMK A01 T10421096  RH  066%=      5-min Rain = 0
KBO1 100621Z 25008KT M04/M10 A3038 RMK A01 T10421096  RH  066%=      5-min Rain = 0
KBO1 100622Z 25008KT M04/M10 A3038 RMK A01 T10421096  RH  066%=      5-min Rain = 0
KBO1 100623Z 25008KT M04/M10 A3038 RMK A01 T10421096  RH  066%=      5-min Rain = 0
KBO1 100624Z 24009KT M04/M10 A3038 RMK A01 T10421097  RH  066%=      5-min Rain = 0
KBO1 100625Z 24009KT M04/M10 A3038 RMK A01 T10431097  RH  066%=      5-min Rain = 0
KBO1 100626Z 24009KT M04/M10 A3038 RMK A01 T10441098  RH  066%=      5-min Rain = 0
KBO1 100627Z 24009KT M04/M10 A3038 RMK A01 T10441098  RH  066%=      5-min Rain = 0
KBO1 100628Z 25009KT M04/M10 A3038 RMK A01 T10441098  RH  066%=      5-min Rain = 0
KBO1 100629Z 25009KT M04/M10 A3038 RMK A01 T10441097  RH  066%=      5-min Rain = 0
KBO1 100630Z 25009KT M04/M10 A3038 RMK A01 T10431097  RH  066%=      5-min Rain = 0
KBO1 100631Z 25009KT M04/M10 A3038 RMK A01 T10431097  RH  066%=      5-min Rain = 0
KBO1 100632Z 25008KT M04/M10 A3038 RMK A01 T10431096  RH  066%=      5-min Rain = 0
KBO1 100633Z 25008KT M04/M10 A3038 RMK A01 T10431097  RH  066%=      5-min Rain = 0
KBO1 100634Z 25009KT M04/M10 A3038 RMK A01 T10431097  RH  066%=      5-min Rain = 0
KBO1 100635Z 25009KT M04/M10 A3038 RMK A01 T10431097  RH  066%=      5-min Rain = 0
KBO1 100636Z 25009KT M04/M10 A3038 RMK A01 T10431097  RH  066%=      5-min Rain = 0
KBO1 100637Z 25009KT M04/M10 A3037 RMK A01 T10431097  RH  066%=      5-min Rain = 0
KBO1 100638Z 25009KT M04/M10 A3037 RMK A01 T10431097  RH  066%=      5-min Rain = 0
KBO1 100639Z 25009KT M04/M10 A3037 RMK A01 T10441097  RH  066%=      5-min Rain = 0
KBO1 100640Z 25009KT M04/M10 A3037 RMK A01 T10441097  RH  066%=      5-min Rain = 0
KBO1 100641Z 25010KT M04/M10 A3037 RMK A01 T10441097  RH  066%=      5-min Rain = 0
KBO1 100642Z 25009KT M04/M10 A3037 RMK A01 T10441097  RH  066%=      5-min Rain = 0
KBO1 100643Z 25009KT M04/M10 A3037 RMK A01 T10431097  RH  066%=      5-min Rain = 0
KBO1 100644Z 25009KT M04/M10 A3037 RMK A01 T10421096  RH  066%=      5-min Rain = 0
KBO1 100645Z 25009KT M04/M10 A3037 RMK A01 T10411096  RH  066%=      5-min Rain = 0
KBO1 100646Z 25009KT M04/M10 A3037 RMK A01 T10401095  RH  065%=      5-min Rain = 0
KBO1 100647Z 25009KT M04/M10 A3037 RMK A01 T10391096  RH  065%=      5-min Rain = 0
KBO1 100648Z 25009KT M04/M10 A3037 RMK A01 T10391096  RH  065%=      5-min Rain = 0
KBO1 100649Z 25009KT M04/M10 A3037 RMK A01 T10391096  RH  064%=      5-min Rain = 0
KBO1 100650Z 25009KT M04/M10 A3037 RMK A01 T10381095  RH  064%=      5-min Rain = 0
KBO1 100651Z 25010KT M04/M10 A3037 RMK A01 T10381095  RH  064%=      5-min Rain = 0
KBO1 100652Z 25010KT M04/M10 A3037 RMK A01 T10381096  RH  064%=      5-min Rain = 0
KBO1 100653Z 25010KT M04/M10 A3037 RMK A01 T10391096  RH  065%=      5-min Rain = 0
KBO1 100654Z 25010KT M04/M10 A3037 RMK A01 T10401096  RH  065%=      5-min Rain = 0
KBO1 100655Z 25009KT M04/M10 A3037 RMK A01 T10401096  RH  065%=      5-min Rain = 0
KBO1 100656Z 25009KT M04/M10 A3037 RMK A01 T10411096  RH  065%=      5-min Rain = 0
KBO1 100657Z 25009KT M04/M10 A3037 RMK A01 T10411096  RH  065%=      5-min Rain = 0
KBO1 100658Z 25009KT M04/M10 A3037 RMK A01 T10411096  RH  065%=      5-min Rain = 0
KBO1 100659Z 25009KT M04/M10 A3036 RMK A01 T10411096  RH  066%=      5-min Rain = 0
KBO1 100700Z 25009KT M04/M10 A3036 RMK A01 T10411096  RH  066%=      5-min Rain = 0
KBO1 100701Z 25010KT M04/M10 A3036 RMK A01 T10411095  RH  066%=      5-min Rain = 0
KBO1 100702Z 25010KT M04/M10 A3036 RMK A01 T10411095  RH  066%=      5-min Rain = 0
KBO1 100703Z 25010KT M04/M09 A3036 RMK A01 T10401094  RH  067%=      5-min Rain = 0
KBO1 100704Z 25010KT M04/M09 A3036 RMK A01 T10401093  RH  067%=      5-min Rain = 0
KBO1 100705Z 25010KT M04/M09 A3036 RMK A01 T10391092  RH  067%=      5-min Rain = 0
KBO1 100706Z 25009KT M04/M09 A3036 RMK A01 T10391091  RH  067%=      5-min Rain = 0
KBO1 100707Z 25009KT M04/M09 A3036 RMK A01 T10381090  RH  067%=      5-min Rain = 0
KBO1 100708Z 25010KT M04/M09 A3036 RMK A01 T10381090  RH  067%=      5-min Rain = 0
KBO1 100709Z 25010KT M04/M09 A3036 RMK A01 T10381090  RH  067%=      5-min Rain = 0
KBO1 100710Z 25010KT M04/M09 A3036 RMK A01 T10391091  RH  067%=      5-min Rain = 0
KBO1 100711Z 25010KT M04/M09 A3036 RMK A01 T10401091  RH  068%=      5-min Rain = 0
KBO1 100712Z 25010KT M04/M09 A3036 RMK A01 T10401091  RH  068%=      5-min Rain = 0
KBO1 100713Z 25010KT M04/M09 A3036 RMK A01 T10401089  RH  068%=      5-min Rain = 0
KBO1 100714Z 24010KT M04/M09 A3036 RMK A01 T10401089  RH  069%=      5-min Rain = 0
KBO1 100715Z 24010KT M04/M09 A3036 RMK A01 T10401088  RH  069%=      5-min Rain = 0
KBO1 100716Z 24010KT M04/M09 A3036 RMK A01 T10411088  RH  069%=      5-min Rain = 0
KBO1 100717Z 24010KT M04/M09 A3036 RMK A01 T10411088  RH  070%=      5-min Rain = 0
KBO1 100718Z 24010KT M04/M09 A3036 RMK A01 T10421087  RH  070%=      5-min Rain = 0
KBO1 100719Z 24010KT M04/M09 A3036 RMK A01 T10421086  RH  071%=      5-min Rain = 0
KBO1 100720Z 25010KT M04/M09 A3036 RMK A01 T10421086  RH  071%=      5-min Rain = 0
KBO1 100721Z 25009KT M04/M09 A3036 RMK A01 T10411085  RH  071%=      5-min Rain = 0
KBO1 100722Z 25009KT M04/M09 A3036 RMK A01 T10411085  RH  071%=      5-min Rain = 0
KBO1 100723Z 25009KT M04/M08 A3036 RMK A01 T10411084  RH  072%=      5-min Rain = 0
KBO1 100724Z 25009KT M04/M08 A3036 RMK A01 T10411084  RH  072%=      5-min Rain = 0
KBO1 100725Z 25009KT M04/M08 A3036 RMK A01 T10411084  RH  072%=      5-min Rain = 0
KBO1 100726Z 25009KT M04/M08 A3036 RMK A01 T10411083  RH  072%=      5-min Rain = 0
KBO1 100727Z 25009KT M04/M08 A3036 RMK A01 T10411083  RH  073%=      5-min Rain = 0
KBO1 100728Z 25009KT M04/M08 A3036 RMK A01 T10411083  RH  073%=      5-min Rain = 0
KBO1 100729Z 25009KT M04/M08 A3036 RMK A01 T10411082  RH  073%=      5-min Rain = 0
KBO1 100730Z 25009KT M04/M08 A3036 RMK A01 T10411081  RH  073%=      5-min Rain = 0
KBO1 100731Z 25009KT M04/M08 A3035 RMK A01 T10401080  RH  074%=      5-min Rain = 0
KBO1 100732Z 25009KT M04/M08 A3035 RMK A01 T10391080  RH  074%=      5-min Rain = 0
KBO1 100733Z 25009KT M04/M08 A3035 RMK A01 T10391079  RH  073%=      5-min Rain = 0
KBO1 100734Z 25009KT M04/M08 A3035 RMK A01 T10381079  RH  073%=      5-min Rain = 0
KBO1 100735Z 25008KT M04/M08 A3035 RMK A01 T10381079  RH  073%=      5-min Rain = 0
KBO1 100736Z 25008KT M04/M08 A3035 RMK A01 T10381080  RH  072%=      5-min Rain = 0
KBO1 100737Z 25008KT M04/M08 A3035 RMK A01 T10381081  RH  072%=      5-min Rain = 0
KBO1 100738Z 25008KT M04/M08 A3035 RMK A01 T10381081  RH  072%=      5-min Rain = 0
KBO1 100739Z 25008KT M04/M08 A3035 RMK A01 T10371080  RH  072%=      5-min Rain = 0
KBO1 100740Z 25008KT M04/M08 A3035 RMK A01 T10371079  RH  073%=      5-min Rain = 0
KBO1 100741Z 25008KT M04/M08 A3035 RMK A01 T10371078  RH  073%=      5-min Rain = 0
KBO1 100742Z 25008KT M04/M08 A3035 RMK A01 T10381076  RH  074%=      5-min Rain = 0
KBO1 100743Z 25008KT M04/M07 A3035 RMK A01 T10381074  RH  076%=      5-min Rain = 0
KBO1 100744Z 25008KT M04/M07 A3035 RMK A01 T10371072  RH  077%=      5-min Rain = 0
KBO1 100745Z 25009KT M04/M07 A3035 RMK A01 T10371069  RH  078%=      5-min Rain = 0
KBO1 100746Z 25009KT M04/M07 A3035 RMK A01 T10361068  RH  079%=      5-min Rain = 0
KBO1 100747Z 25009KT M04/M07 A3035 RMK A01 T10361066  RH  080%=      5-min Rain = 0
KBO1 100748Z 25009KT M04/M07 A3035 RMK A01 T10361065  RH  080%=      5-min Rain = 0
KBO1 100749Z 25010KT M04/M06 A3035 RMK A01 T10361064  RH  081%=      5-min Rain = 0
KBO1 100750Z 25010KT M04/M06 A3035 RMK A01 T10361063  RH  081%=      5-min Rain = 0
KBO1 100751Z 25010KT M04/M06 A3035 RMK A01 T10361062  RH  082%=      5-min Rain = 0
KBO1 100752Z 25010KT M04/M06 A3035 RMK A01 T10351060  RH  083%=      5-min Rain = 0
KBO1 100753Z 25010KT M04/M06 A3035 RMK A01 T10351059  RH  084%=      5-min Rain = 0
KBO1 100754Z 25010KT M04/M06 A3035 RMK A01 T10351057  RH  084%=      5-min Rain = 0
KBO1 100755Z 25010KT M03/M06 A3035 RMK A01 T10341055  RH  085%=      5-min Rain = 0
KBO1 100756Z 25010KT M03/M05 A3035 RMK A01 T10331054  RH  085%=      5-min Rain = 0
KBO1 100757Z 25009KT M03/M05 A3035 RMK A01 T10321052  RH  086%=      5-min Rain = 0
KBO1 100758Z 25009KT M03/M05 A3035 RMK A01 T10311052  RH  086%=      5-min Rain = 0
KBO1 100759Z 25009KT M03/M05 A3035 RMK A01 T10301051  RH  086%=      5-min Rain = 0
KBO1 100800Z 25009KT M03/M05 A3035 RMK A01 T10311051  RH  086%=      5-min Rain = 0
KBO1 100801Z 25009KT M03/M05 A3035 RMK A01 T10311051  RH  086%=      5-min Rain = 0
KBO1 100802Z 25009KT M03/M05 A3035 RMK A01 T10301050  RH  086%=      5-min Rain = 0
KBO1 100803Z 25009KT M03/M05 A3035 RMK A01 T10311050  RH  086%=      5-min Rain = 0
KBO1 100804Z 25009KT M03/M05 A3035 RMK A01 T10311050  RH  086%=      5-min Rain = 0
KBO1 100805Z 25009KT M03/M05 A3035 RMK A01 T10311050  RH  087%=      5-min Rain = 0
KBO1 100806Z 25009KT M03/M05 A3035 RMK A01 T10311049  RH  087%=      5-min Rain = 0
KBO1 100807Z 25009KT M03/M05 A3035 RMK A01 T10301049  RH  087%=      5-min Rain = 0
KBO1 100808Z 25009KT M03/M05 A3035 RMK A01 T10301048  RH  088%=      5-min Rain = 0
KBO1 100809Z 25009KT M03/M05 A3035 RMK A01 T10301047  RH  088%=      5-min Rain = 0
KBO1 100810Z 25009KT M03/M05 A3034 RMK A01 T10301047  RH  088%=      5-min Rain = 0
KBO1 100811Z 25009KT M03/M05 A3034 RMK A01 T10301047  RH  088%=      5-min Rain = 0
KBO1 100812Z 25009KT M03/M05 A3035 RMK A01 T10301047  RH  088%=      5-min Rain = 0
KBO1 100813Z 25009KT M03/M05 A3035 RMK A01 T10291046  RH  088%=      5-min Rain = 0
KBO1 100814Z 25009KT M03/M05 A3035 RMK A01 T10291046  RH  088%=      5-min Rain = 0
KBO1 100815Z 25009KT M03/M05 A3035 RMK A01 T10291046  RH  088%=      5-min Rain = 0
KBO1 100816Z 26009KT M03/M05 A3034 RMK A01 T10291046  RH  088%=      5-min Rain = 0
KBO1 100817Z 26009KT M03/M05 A3035 RMK A01 T10291045  RH  088%=      5-min Rain = 0
KBO1 100818Z 26009KT M03/M05 A3035 RMK A01 T10291045  RH  088%=      5-min Rain = 0
KBO1 100819Z 26009KT M03/M05 A3034 RMK A01 T10281045  RH  088%=      5-min Rain = 0
KBO1 100820Z 26009KT M03/M05 A3034 RMK A01 T10281045  RH  088%=      5-min Rain = 0
KBO1 100821Z 26009KT M03/M04 A3034 RMK A01 T10281044  RH  089%=      5-min Rain = 0
KBO1 100822Z 25009KT M03/M04 A3034 RMK A01 T10281044  RH  088%=      5-min Rain = 0
KBO1 100823Z 26009KT M03/M04 A3034 RMK A01 T10281044  RH  089%=      5-min Rain = 0
KBO1 100824Z 25008KT M03/M04 A3034 RMK A01 T10271043  RH  089%=      5-min Rain = 0
KBO1 100825Z 26009KT M03/M04 A3034 RMK A01 T10271043  RH  089%=      5-min Rain = 0
KBO1 100826Z 26009KT M03/M04 A3034 RMK A01 T10271043  RH  089%=      5-min Rain = 0
KBO1 100827Z 26009KT M03/M04 A3034 RMK A01 T10271043  RH  088%=      5-min Rain = 0
KBO1 100828Z 26009KT M03/M04 A3034 RMK A01 T10261043  RH  089%=      5-min Rain = 0
KBO1 100829Z 26009KT M03/M04 A3034 RMK A01 T10261042  RH  089%=      5-min Rain = 0
KBO1 100830Z 25009KT M03/M04 A3034 RMK A01 T10261043  RH  089%=      5-min Rain = 0
KBO1 100831Z 26008KT M03/M04 A3034 RMK A01 T10261042  RH  089%=      5-min Rain = 0
KBO1 100832Z 26009KT M03/M04 A3034 RMK A01 T10261042  RH  089%=      5-min Rain = 0
KBO1 100833Z 26008KT M03/M04 A3034 RMK A01 T10261042  RH  089%=      5-min Rain = 0
KBO1 100834Z 26008KT M03/M04 A3034 RMK A01 T10261042  RH  089%=      5-min Rain = 0
KBO1 100835Z 25008KT M03/M04 A3034 RMK A01 T10261042  RH  089%=      5-min Rain = 0
KBO1 100836Z 25008KT M03/M04 A3034 RMK A01 T10261042  RH  089%=      5-min Rain = 0
KBO1 100837Z 26008KT M03/M04 A3034 RMK A01 T10261042  RH  089%=      5-min Rain = 0
KBO1 100838Z 25008KT M03/M04 A3034 RMK A01 T10261042  RH  089%=      5-min Rain = 0
KBO1 100839Z 25008KT M03/M04 A3034 RMK A01 T10261042  RH  089%=      5-min Rain = 0
KBO1 100840Z 25008KT M03/M04 A3034 RMK A01 T10261042  RH  089%=      5-min Rain = 0
KBO1 100841Z 25008KT M03/M04 A3034 RMK A01 T10261043  RH  088%=      5-min Rain = 0
KBO1 100842Z 25008KT M03/M04 A3034 RMK A01 T10271044  RH  088%=      5-min Rain = 0
KBO1 100843Z 25008KT M03/M05 A3034 RMK A01 T10281045  RH  088%=      5-min Rain = 0
KBO1 100844Z 26007KT M03/M05 A3034 RMK A01 T10281045  RH  088%=      5-min Rain = 0
KBO1 100845Z 26008KT M03/M05 A3034 RMK A01 T10291046  RH  088%=      5-min Rain = 0
KBO1 100846Z 25008KT M03/M05 A3034 RMK A01 T10291045  RH  088%=      5-min Rain = 0
KBO1 100847Z 25008KT M03/M05 A3034 RMK A01 T10291045  RH  089%=      5-min Rain = 0
KBO1 100848Z 25008KT M03/M05 A3034 RMK A01 T10281045  RH  089%=      5-min Rain = 0
KBO1 100849Z 25008KT M03/M05 A3034 RMK A01 T10291045  RH  088%=      5-min Rain = 0
KBO1 100850Z 25008KT M03/M04 A3034 RMK A01 T10281044  RH  089%=      5-min Rain = 0
KBO1 100851Z 25008KT M03/M04 A3034 RMK A01 T10261042  RH  089%=      5-min Rain = 0
KBO1 100852Z 25008KT M03/M04 A3034 RMK A01 T10251041  RH  089%=      5-min Rain = 0
KBO1 100853Z 25009KT M03/M04 A3034 RMK A01 T10251042  RH  088%=      5-min Rain = 0
KBO1 100854Z 25008KT M03/M04 A3034 RMK A01 T10251042  RH  088%=      5-min Rain = 0
KBO1 100855Z 25009KT M03/M04 A3034 RMK A01 T10251042  RH  088%=      5-min Rain = 0
KBO1 100856Z 25009KT M02/M04 A3034 RMK A01 T10241042  RH  088%=      5-min Rain = 0
KBO1 100857Z 25009KT M02/M04 A3034 RMK A01 T10231041  RH  088%=      5-min Rain = 0
KBO1 100858Z 25009KT M02/M04 A3034 RMK A01 T10231041  RH  088%=      5-min Rain = 0
KBO1 100859Z 25009KT M02/M04 A3034 RMK A01 T10221040  RH  087%=      5-min Rain = 0
KBO1 100900Z 25010KT M02/M04 A3034 RMK A01 T10221041  RH  087%=      5-min Rain = 0
KBO1 100901Z 25009KT M02/M04 A3034 RMK A01 T10221041  RH  087%=      5-min Rain = 0
KBO1 100902Z 25009KT M02/M04 A3034 RMK A01 T10221041  RH  087%=      5-min Rain = 0
KBO1 100903Z 25009KT M02/M04 A3034 RMK A01 T10221042  RH  086%=      5-min Rain = 0
KBO1 100904Z 25009KT M02/M04 A3034 RMK A01 T10221042  RH  086%=      5-min Rain = 0
KBO1 100905Z 25009KT M02/M04 A3034 RMK A01 T10231043  RH  086%=      5-min Rain = 0
KBO1 100906Z 25009KT M02/M05 A3034 RMK A01 T10241045  RH  086%=      5-min Rain = 0
KBO1 100907Z 25009KT M03/M05 A3034 RMK A01 T10251046  RH  086%=      5-min Rain = 0
KBO1 100908Z 25009KT M03/M05 A3034 RMK A01 T10261046  RH  086%=      5-min Rain = 0
KBO1 100909Z 25009KT M03/M05 A3034 RMK A01 T10271047  RH  086%=      5-min Rain = 0
KBO1 100910Z 25009KT M03/M05 A3034 RMK A01 T10281047  RH  086%=      5-min Rain = 0
KBO1 100911Z 25010KT M03/M05 A3034 RMK A01 T10291048  RH  087%=      5-min Rain = 0
KBO1 100912Z 25010KT M03/M05 A3034 RMK A01 T10301049  RH  087%=      5-min Rain = 0
KBO1 100913Z 25010KT M03/M05 A3034 RMK A01 T10311050  RH  087%=      5-min Rain = 0
KBO1 100914Z 25010KT M03/M05 A3034 RMK A01 T10321050  RH  087%=      5-min Rain = 0
KBO1 100915Z 25010KT M03/M05 A3034 RMK A01 T10321050  RH  087%=      5-min Rain = 0
KBO1 100916Z 25011KT M03/M05 A3034 RMK A01 T10321050  RH  088%=      5-min Rain = 0
KBO1 100917Z 25010KT M03/M05 A3034 RMK A01 T10321049  RH  088%=      5-min Rain = 0
KBO1 100918Z 25011KT M03/M05 A3034 RMK A01 T10311048  RH  088%=      5-min Rain = 0
KBO1 100919Z 25010KT M03/M05 A3034 RMK A01 T10311048  RH  088%=      5-min Rain = 0
KBO1 100920Z 25010KT M03/M05 A3034 RMK A01 T10311048  RH  088%=      5-min Rain = 0
KBO1 100921Z 25010KT M03/M05 A3034 RMK A01 T10311048  RH  088%=      5-min Rain = 0
KBO1 100922Z 25010KT M03/M05 A3034 RMK A01 T10311049  RH  088%=      5-min Rain = 0
KBO1 100923Z 25010KT M03/M05 A3034 RMK A01 T10321050  RH  087%=      5-min Rain = 0
KBO1 100924Z 25010KT M03/M05 A3034 RMK A01 T10331051  RH  087%=      5-min Rain = 0
KBO1 100925Z 25010KT M03/M05 A3034 RMK A01 T10331051  RH  088%=      5-min Rain = 0
KBO1 100926Z 25010KT M03/M05 A3034 RMK A01 T10331050  RH  088%=      5-min Rain = 0
KBO1 100927Z 25010KT M03/M05 A3034 RMK A01 T10321049  RH  088%=      5-min Rain = 0
KBO1 100928Z 25010KT M03/M05 A3034 RMK A01 T10321049  RH  088%=      5-min Rain = 0
KBO1 100929Z 25010KT M03/M05 A3034 RMK A01 T10311048  RH  088%=      5-min Rain = 0
KBO1 100930Z 25009KT M03/M05 A3034 RMK A01 T10311048  RH  088%=      5-min Rain = 0
KBO1 100931Z 25009KT M03/M05 A3034 RMK A01 T10301047  RH  088%=      5-min Rain = 0
KBO1 100932Z 25009KT M03/M05 A3034 RMK A01 T10291047  RH  088%=      5-min Rain = 0
KBO1 100933Z 25009KT M03/M05 A3034 RMK A01 T10291047  RH  088%=      5-min Rain = 0
KBO1 100934Z 25009KT M03/M05 A3034 RMK A01 T10291047  RH  087%=      5-min Rain = 0
KBO1 100935Z 25009KT M03/M05 A3034 RMK A01 T10281047  RH  087%=      5-min Rain = 0
KBO1 100936Z 25008KT M03/M05 A3034 RMK A01 T10281047  RH  087%=      5-min Rain = 0
KBO1 100937Z 25008KT M03/M05 A3034 RMK A01 T10281047  RH  087%=      5-min Rain = 0
KBO1 100938Z 25008KT M03/M05 A3034 RMK A01 T10281047  RH  087%=      5-min Rain = 0
KBO1 100939Z 25007KT M03/M05 A3034 RMK A01 T10281048  RH  086%=      5-min Rain = 0
KBO1 100940Z 25007KT M03/M05 A3034 RMK A01 T10281048  RH  086%=      5-min Rain = 0
KBO1 100941Z 25007KT M03/M05 A3034 RMK A01 T10281048  RH  086%=      5-min Rain = 0
KBO1 100942Z 25007KT M03/M05 A3034 RMK A01 T10291049  RH  086%=      5-min Rain = 0
KBO1 100943Z 25006KT M03/M05 A3034 RMK A01 T10281048  RH  086%=      5-min Rain = 0
KBO1 100944Z 25006KT M03/M05 A3034 RMK A01 T10281048  RH  086%=      5-min Rain = 0
KBO1 100945Z 25006KT M03/M05 A3034 RMK A01 T10281048  RH  086%=      5-min Rain = 0
KBO1 100946Z 25006KT M03/M05 A3034 RMK A01 T10281048  RH  086%=      5-min Rain = 0
KBO1 100947Z 25006KT M03/M05 A3034 RMK A01 T10281048  RH  086%=      5-min Rain = 0
KBO1 100948Z 25006KT M03/M05 A3034 RMK A01 T10281048  RH  086%=      5-min Rain = 0
KBO1 100949Z 25006KT M03/M05 A3034 RMK A01 T10281048  RH  086%=      5-min Rain = 0
KBO1 100950Z 25007KT M03/M05 A3034 RMK A01 T10281048  RH  086%=      5-min Rain = 0
KBO1 100951Z 25007KT M03/M05 A3034 RMK A01 T10281046  RH  087%=      5-min Rain = 0
KBO1 100952Z 25009KT M03/M04 A3034 RMK A01 T10261043  RH  088%=      5-min Rain = 0
KBO1 100953Z 26009KT M02/M04 A3034 RMK A01 T10231040  RH  088%=      5-min Rain = 0
KBO1 100954Z 25009KT M02/M04 A3034 RMK A01 T10211039  RH  088%=      5-min Rain = 0
KBO1 100955Z 26009KT M02/M04 A3034 RMK A01 T10201039  RH  087%=      5-min Rain = 0
KBO1 100956Z 26009KT M02/M04 A3034 RMK A01 T10191040  RH  086%=      5-min Rain = 0
KBO1 100957Z 26009KT M02/M04 A3034 RMK A01 T10191040  RH  085%=      5-min Rain = 0
KBO1 100958Z 26010KT M02/M04 A3034 RMK A01 T10201042  RH  085%=      5-min Rain = 0
KBO1 100959Z 26010KT M02/M04 A3034 RMK A01 T10201042  RH  085%=      5-min Rain = 0
KBO1 101000Z 26010KT M02/M04 A3034 RMK A01 T10201042  RH  085%=      5-min Rain = 0
KBO1 101001Z 26010KT M02/M04 A3034 RMK A01 T10201042  RH  085%=      5-min Rain = 0
KBO1 101002Z 26009KT M02/M04 A3034 RMK A01 T10201042  RH  085%=      5-min Rain = 0
KBO1 101003Z 26009KT M02/M04 A3034 RMK A01 T10201043  RH  085%=      5-min Rain = 0
KBO1 101004Z 26009KT M02/M04 A3034 RMK A01 T10201042  RH  085%=      5-min Rain = 0
KBO1 101005Z 25009KT M02/M04 A3034 RMK A01 T10211044  RH  084%=      5-min Rain = 0
KBO1 101006Z 25009KT M02/M05 A3034 RMK A01 T10221045  RH  084%=      5-min Rain = 0
KBO1 101007Z 25009KT M02/M05 A3034 RMK A01 T10231045  RH  084%=      5-min Rain = 0
KBO1 101008Z 25009KT M02/M05 A3034 RMK A01 T10231046  RH  084%=      5-min Rain = 0
KBO1 101009Z 25008KT M02/M05 A3034 RMK A01 T10241047  RH  085%=      5-min Rain = 0
KBO1 101010Z 25008KT M03/M05 A3034 RMK A01 T10251048  RH  084%=      5-min Rain = 0
KBO1 101011Z 25008KT M03/M05 A3034 RMK A01 T10271049  RH  085%=      5-min Rain = 0
KBO1 101012Z 25008KT M03/M05 A3034 RMK A01 T10281050  RH  085%=      5-min Rain = 0
KBO1 101013Z 25008KT M03/M05 A3034 RMK A01 T10291050  RH  085%=      5-min Rain = 0
KBO1 101014Z 25007KT M03/M05 A3034 RMK A01 T10301051  RH  085%=      5-min Rain = 0
KBO1 101015Z 25007KT M03/M05 A3034 RMK A01 T10311052  RH  085%=      5-min Rain = 0
KBO1 101016Z 25007KT M03/M05 A3034 RMK A01 T10321052  RH  086%=      5-min Rain = 0
KBO1 101017Z 25007KT M03/M05 A3034 RMK A01 T10321053  RH  086%=      5-min Rain = 0
KBO1 101018Z 25007KT M03/M05 A3034 RMK A01 T10331054  RH  086%=      5-min Rain = 0
KBO1 101019Z 25007KT M04/M06 A3034 RMK A01 T10351055  RH  086%=      5-min Rain = 0
KBO1 101020Z 25007KT M04/M06 A3034 RMK A01 T10361057  RH  086%=      5-min Rain = 0
KBO1 101021Z 25007KT M04/M06 A3033 RMK A01 T10371057  RH  086%=      5-min Rain = 0
KBO1 101022Z 25008KT M04/M06 A3033 RMK A01 T10381058  RH  086%=      5-min Rain = 0
KBO1 101023Z 25008KT M04/M06 A3033 RMK A01 T10391058  RH  087%=      5-min Rain = 0
KBO1 101024Z 25008KT M04/M06 A3033 RMK A01 T10401059  RH  087%=      5-min Rain = 0
KBO1 101025Z 25009KT M04/M06 A3033 RMK A01 T10411060  RH  087%=      5-min Rain = 0
KBO1 101026Z 26008KT M04/M06 A3033 RMK A01 T10421061  RH  087%=      5-min Rain = 0
KBO1 101027Z 26008KT M04/M06 A3033 RMK A01 T10431061  RH  087%=      5-min Rain = 0
KBO1 101028Z 26008KT M04/M06 A3033 RMK A01 T10441062  RH  088%=      5-min Rain = 0
KBO1 101029Z 26007KT M04/M06 A3033 RMK A01 T10441061  RH  088%=      5-min Rain = 0
KBO1 101030Z 26007KT M05/M06 A3033 RMK A01 T10451062  RH  088%=      5-min Rain = 0
KBO1 101031Z 26006KT M05/M06 A3033 RMK A01 T10451062  RH  088%=      5-min Rain = 0
KBO1 101032Z 26006KT M05/M06 A3033 RMK A01 T10461063  RH  088%=      5-min Rain = 0
KBO1 101033Z 26006KT M05/M06 A3033 RMK A01 T10481064  RH  088%=      5-min Rain = 0
KBO1 101034Z 27006KT M05/M07 A3033 RMK A01 T10491065  RH  088%=      5-min Rain = 0
KBO1 101035Z 27006KT M05/M07 A3033 RMK A01 T10501066  RH  088%=      5-min Rain = 0
KBO1 101036Z 27006KT M05/M07 A3033 RMK A01 T10501065  RH  089%=      5-min Rain = 0
KBO1 101037Z 27006KT M05/M06 A3033 RMK A01 T10501064  RH  089%=      5-min Rain = 0
KBO1 101038Z 27006KT M05/M06 A3033 RMK A01 T10501064  RH  090%=      5-min Rain = 0
KBO1 101039Z 27006KT M05/M06 A3033 RMK A01 T10501064  RH  090%=      5-min Rain = 0
KBO1 101040Z 27006KT M05/M06 A3033 RMK A01 T10501064  RH  090%=      5-min Rain = 0
KBO1 101041Z 27006KT M05/M06 A3033 RMK A01 T10511064  RH  090%=      5-min Rain = 0
KBO1 101042Z 27006KT M05/M07 A3033 RMK A01 T10511065  RH  090%=      5-min Rain = 0
KBO1 101043Z 27006KT M05/M07 A3033 RMK A01 T10521066  RH  090%=      5-min Rain = 0
KBO1 101044Z 27006KT M05/M07 A3033 RMK A01 T10521065  RH  090%=      5-min Rain = 0
KBO1 101045Z 28006KT M05/M07 A3033 RMK A01 T10521065  RH  091%=      5-min Rain = 0
KBO1 101046Z 27005KT M05/M07 A3033 RMK A01 T10521065  RH  091%=      5-min Rain = 0
KBO1 101047Z 27005KT M05/M07 A3033 RMK A01 T10521065  RH  091%=      5-min Rain = 0
KBO1 101048Z 27005KT M05/M07 A3033 RMK A01 T10521065  RH  090%=      5-min Rain = 0
KBO1 101049Z 27006KT M05/M07 A3033 RMK A01 T10521066  RH  090%=      5-min Rain = 0
KBO1 101050Z 27006KT M05/M07 A3033 RMK A01 T10521065  RH  090%=      5-min Rain = 0
KBO1 101051Z 27006KT M05/M07 A3033 RMK A01 T10531066  RH  090%=      5-min Rain = 0
KBO1 101052Z 27006KT M05/M07 A3033 RMK A01 T10531066  RH  090%=      5-min Rain = 0
KBO1 101053Z 27006KT M05/M07 A3033 RMK A01 T10531066  RH  090%=      5-min Rain = 0
KBO1 101054Z 27005KT M05/M07 A3033 RMK A01 T10531066  RH  090%=      5-min Rain = 0
KBO1 101055Z 27006KT M05/M07 A3033 RMK A01 T10541067  RH  091%=      5-min Rain = 0
KBO1 101056Z 26006KT M05/M07 A3032 RMK A01 T10541067  RH  091%=      5-min Rain = 0
KBO1 101057Z 26006KT M05/M07 A3032 RMK A01 T10541067  RH  091%=      5-min Rain = 0
KBO1 101058Z 26006KT M05/M07 A3032 RMK A01 T10541066  RH  091%=      5-min Rain = 0
KBO1 101059Z 27005KT M05/M07 A3032 RMK A01 T10541066  RH  091%=      5-min Rain = 0
KBO1 101100Z 27005KT M05/M07 A3032 RMK A01 T10541066  RH  091%=      5-min Rain = 0
KBO1 101101Z 26006KT M05/M07 A3032 RMK A01 T10541066  RH  091%=      5-min Rain = 0
KBO1 101102Z 26005KT M05/M07 A3032 RMK A01 T10531065  RH  091%=      5-min Rain = 0
KBO1 101103Z 26005KT M05/M06 A3032 RMK A01 T10531064  RH  092%=      5-min Rain = 0
KBO1 101104Z 27005KT M05/M06 A3032 RMK A01 T10521064  RH  092%=      5-min Rain = 0
KBO1 101105Z 27005KT M05/M06 A3032 RMK A01 T10521063  RH  092%=      5-min Rain = 0
KBO1 101106Z 28005KT M05/M06 A3032 RMK A01 T10511062  RH  092%=      5-min Rain = 0
KBO1 101107Z 28005KT M05/M06 A3032 RMK A01 T10501061  RH  092%=      5-min Rain = 0
KBO1 101108Z 28005KT M05/M06 A3032 RMK A01 T10501061  RH  092%=      5-min Rain = 0
KBO1 101109Z 27005KT M05/M06 A3032 RMK A01 T10501061  RH  092%=      5-min Rain = 0
KBO1 101110Z 27006KT M05/M06 A3032 RMK A01 T10501061  RH  092%=      5-min Rain = 0
KBO1 101111Z 27007KT M05/M06 A3032 RMK A01 T10491059  RH  092%=      5-min Rain = 0
KBO1 101112Z 27007KT M05/M06 A3032 RMK A01 T10481059  RH  092%=      5-min Rain = 0
KBO1 101113Z 27007KT M05/M06 A3032 RMK A01 T10481058  RH  093%=      5-min Rain = 0
KBO1 101114Z 27006KT M05/M06 A3032 RMK A01 T10461057  RH  093%=      5-min Rain = 0
KBO1 101115Z 27005KT M05/M06 A3032 RMK A01 T10451056  RH  093%=      5-min Rain = 0
KBO1 101116Z 30003KT M05/M06 A3032 RMK A01 T10451056  RH  092%=      5-min Rain = 0
KBO1 101117Z 28005KT M05/M06 A3032 RMK A01 T10471059  RH  091%=      5-min Rain = 0
KBO1 101118Z 28005KT M05/M06 A3032 RMK A01 T10491062  RH  090%=      5-min Rain = 0
KBO1 101119Z 27006KT M05/M06 A3032 RMK A01 T10501064  RH  090%=      5-min Rain = 0
KBO1 101120Z 27006KT M05/M06 A3032 RMK A01 T10501064  RH  090%=      5-min Rain = 0
KBO1 101121Z 27006KT M05/M06 A3032 RMK A01 T10501063  RH  091%=      5-min Rain = 0
KBO1 101122Z 27006KT M05/M06 A3032 RMK A01 T10501063  RH  091%=      5-min Rain = 0
KBO1 101123Z 27006KT M05/M06 A3032 RMK A01 T10501063  RH  091%=      5-min Rain = 0
KBO1 101124Z 27006KT M05/M06 A3032 RMK A01 T10511063  RH  091%=      5-min Rain = 0
KBO1 101125Z 27005KT M05/M06 A3032 RMK A01 T10511064  RH  091%=      5-min Rain = 0
KBO1 101126Z 27005KT M05/M07 A3032 RMK A01 T10531065  RH  091%=      5-min Rain = 0
KBO1 101127Z 27004KT M05/M07 A3032 RMK A01 T10531066  RH  091%=      5-min Rain = 0
KBO1 101128Z 27003KT M05/M07 A3032 RMK A01 T10541066  RH  091%=      5-min Rain = 0
KBO1 101129Z 27003KT M06/M07 A3032 RMK A01 T10551067  RH  091%=      5-min Rain = 0
KBO1 101130Z 27003KT M06/M07 A3032 RMK A01 T10551068  RH  091%=      5-min Rain = 0
KBO1 101131Z 27003KT M06/M07 A3032 RMK A01 T10551067  RH  091%=      5-min Rain = 0
KBO1 101132Z 27003KT M06/M07 A3032 RMK A01 T10551066  RH  092%=      5-min Rain = 0
KBO1 101133Z 26004KT M05/M06 A3032 RMK A01 T10531063  RH  093%=      5-min Rain = 0
KBO1 101134Z 26004KT M05/M06 A3032 RMK A01 T10521061  RH  093%=      5-min Rain = 0
KBO1 101135Z 26005KT M05/M06 A3032 RMK A01 T10511060  RH  093%=      5-min Rain = 0
KBO1 101136Z 26006KT M05/M06 A3032 RMK A01 T10511060  RH  093%=      5-min Rain = 0
KBO1 101137Z 26006KT M05/M06 A3032 RMK A01 T10511060  RH  093%=      5-min Rain = 0
KBO1 101138Z 26005KT M05/M06 A3032 RMK A01 T10511061  RH  093%=      5-min Rain = 0
KBO1 101139Z 26004KT M05/M06 A3032 RMK A01 T10511062  RH  092%=      5-min Rain = 0
KBO1 101140Z 26004KT M05/M06 A3032 RMK A01 T10521063  RH  092%=      5-min Rain = 0
KBO1 101141Z 26004KT M05/M07 A3032 RMK A01 T10531065  RH  092%=      5-min Rain = 0
KBO1 101142Z 26004KT M05/M07 A3032 RMK A01 T10531065  RH  092%=      5-min Rain = 0
KBO1 101143Z 26004KT M05/M06 A3032 RMK A01 T10531064  RH  092%=      5-min Rain = 0
KBO1 101144Z 26004KT M05/M06 A3032 RMK A01 T10531064  RH  092%=      5-min Rain = 0
KBO1 101145Z 26004KT M05/M06 A3032 RMK A01 T10531064  RH  092%=      5-min Rain = 0
KBO1 101146Z 25004KT M05/M07 A3032 RMK A01 T10541065  RH  092%=      5-min Rain = 0
KBO1 101147Z 25004KT M05/M07 A3032 RMK A01 T10541065  RH  092%=      5-min Rain = 0
KBO1 101148Z 25004KT M05/M07 A3032 RMK A01 T10541065  RH  092%=      5-min Rain = 0
KBO1 101149Z 25005KT M06/M07 A3032 RMK A01 T10551066  RH  092%=      5-min Rain = 0
KBO1 101150Z 25005KT M05/M07 A3032 RMK A01 T10541065  RH  092%=      5-min Rain = 0
KBO1 101151Z 26005KT M05/M07 A3032 RMK A01 T10541065  RH  092%=      5-min Rain = 0
KBO1 101152Z 26005KT M05/M06 A3032 RMK A01 T10541064  RH  093%=      5-min Rain = 0
KBO1 101153Z 26004KT M05/M06 A3032 RMK A01 T10531063  RH  093%=      5-min Rain = 0
KBO1 101154Z 26004KT M05/M06 A3032 RMK A01 T10531063  RH  093%=      5-min Rain = 0
KBO1 101155Z 25004KT M05/M06 A3032 RMK A01 T10531063  RH  093%=      5-min Rain = 0
KBO1 101156Z 25005KT M05/M06 A3032 RMK A01 T10531063  RH  093%=      5-min Rain = 0
KBO1 101157Z 25005KT M05/M06 A3032 RMK A01 T10531063  RH  093%=      5-min Rain = 0
KBO1 101158Z 25005KT M05/M06 A3032 RMK A01 T10511061  RH  093%=      5-min Rain = 0
KBO1 101159Z 25005KT M05/M06 A3032 RMK A01 T10511060  RH  093%=      5-min Rain = 0
KBO1 101200Z 24005KT M05/M06 A3032 RMK A01 T10501059  RH  093%=      5-min Rain = 0
KBO1 101201Z 24005KT M05/M06 A3032 RMK A01 T10501059  RH  093%=      5-min Rain = 0
KBO1 101202Z 24005KT M05/M06 A3033 RMK A01 T10501060  RH  093%=      5-min Rain = 0
KBO1 101203Z 24005KT M05/M06 A3033 RMK A01 T10511061  RH  092%=      5-min Rain = 0
KBO1 101204Z 24006KT M05/M06 A3033 RMK A01 T10511062  RH  092%=      5-min Rain = 0
KBO1 101205Z 24007KT M05/M06 A3033 RMK A01 T10521063  RH  092%=      5-min Rain = 0
KBO1 101206Z 24008KT M05/M07 A3033 RMK A01 T10541065  RH  092%=      5-min Rain = 0
KBO1 101207Z 24008KT M06/M07 A3033 RMK A01 T10551067  RH  091%=      5-min Rain = 0
KBO1 101208Z 24008KT M06/M07 A3033 RMK A01 T10561069  RH  091%=      5-min Rain = 0
KBO1 101209Z 24008KT M06/M07 A3033 RMK A01 T10571069  RH  091%=      5-min Rain = 0
KBO1 101210Z 24008KT M06/M07 A3033 RMK A01 T10571069  RH  091%=      5-min Rain = 0
KBO1 101211Z 24008KT M06/M07 A3033 RMK A01 T10571069  RH  091%=      5-min Rain = 0
KBO1 101212Z 24008KT M06/M07 A3033 RMK A01 T10571069  RH  091%=      5-min Rain = 0
KBO1 101213Z 24008KT M06/M07 A3033 RMK A01 T10571069  RH  091%=      5-min Rain = 0
KBO1 101214Z 24008KT M06/M07 A3033 RMK A01 T10561067  RH  091%=      5-min Rain = 0
KBO1 101215Z 24008KT M06/M07 A3033 RMK A01 T10551067  RH  091%=      5-min Rain = 0
KBO1 101216Z 24008KT M06/M07 A3033 RMK A01 T10551067  RH  091%=      5-min Rain = 0
KBO1 101217Z 24008KT M06/M07 A3033 RMK A01 T10551068  RH  091%=      5-min Rain = 0
KBO1 101218Z 24009KT M06/M07 A3033 RMK A01 T10551068  RH  091%=      5-min Rain = 0
KBO1 101219Z 24009KT M06/M07 A3033 RMK A01 T10551068  RH  090%=      5-min Rain = 0
KBO1 101220Z 24009KT M06/M07 A3033 RMK A01 T10561069  RH  090%=      5-min Rain = 0
KBO1 101221Z 24009KT M06/M07 A3033 RMK A01 T10561070  RH  090%=      5-min Rain = 0
KBO1 101222Z 24009KT M06/M07 A3033 RMK A01 T10561070  RH  090%=      5-min Rain = 0
KBO1 101223Z 24009KT M06/M07 A3033 RMK A01 T10561070  RH  090%=      5-min Rain = 0
KBO1 101224Z 24009KT M06/M07 A3033 RMK A01 T10561070  RH  090%=      5-min Rain = 0
KBO1 101225Z 24009KT M06/M07 A3033 RMK A01 T10561070  RH  090%=      5-min Rain = 0
KBO1 101226Z 24009KT M06/M07 A3033 RMK A01 T10561070  RH  090%=      5-min Rain = 0
KBO1 101227Z 24009KT M06/M07 A3033 RMK A01 T10561071  RH  090%=      5-min Rain = 0
KBO1 101228Z 24009KT M06/M07 A3033 RMK A01 T10561071  RH  090%=      5-min Rain = 0
KBO1 101229Z 24009KT M06/M07 A3033 RMK A01 T10561071  RH  090%=      5-min Rain = 0
KBO1 101230Z 24009KT M06/M07 A3033 RMK A01 T10561071  RH  089%=      5-min Rain = 0
KBO1 101231Z 24009KT M06/M07 A3033 RMK A01 T10561071  RH  089%=      5-min Rain = 0
KBO1 101232Z 24008KT M06/M07 A3033 RMK A01 T10561071  RH  089%=      5-min Rain = 0
KBO1 101233Z 25008KT M06/M07 A3033 RMK A01 T10561071  RH  089%=      5-min Rain = 0
KBO1 101234Z 25008KT M06/M07 A3033 RMK A01 T10561072  RH  089%=      5-min Rain = 0
KBO1 101235Z 25008KT M06/M07 A3033 RMK A01 T10571072  RH  089%=      5-min Rain = 0
KBO1 101236Z 25008KT M06/M07 A3033 RMK A01 T10571072  RH  089%=      5-min Rain = 0
KBO1 101237Z 25008KT M06/M07 A3033 RMK A01 T10571072  RH  089%=      5-min Rain = 0
KBO1 101238Z 25008KT M06/M07 A3033 RMK A01 T10561072  RH  089%=      5-min Rain = 0
KBO1 101239Z 25008KT M06/M07 A3033 RMK A01 T10561071  RH  089%=      5-min Rain = 0
KBO1 101240Z 25008KT M06/M07 A3033 RMK A01 T10561071  RH  089%=      5-min Rain = 0
KBO1 101241Z 25008KT M06/M07 A3033 RMK A01 T10561071  RH  089%=      5-min Rain = 0
KBO1 101242Z 25008KT M06/M07 A3033 RMK A01 T10561072  RH  089%=      5-min Rain = 0
KBO1 101243Z 25008KT M06/M07 A3033 RMK A01 T10561072  RH  089%=      5-min Rain = 0
KBO1 101244Z 25007KT M06/M07 A3033 RMK A01 T10561072  RH  089%=      5-min Rain = 0
KBO1 101245Z 25007KT M06/M07 A3033 RMK A01 T10561072  RH  089%=      5-min Rain = 0
KBO1 101246Z 25007KT M06/M07 A3033 RMK A01 T10561072  RH  089%=      5-min Rain = 0
KBO1 101247Z 25007KT M06/M07 A3033 RMK A01 T10561072  RH  089%=      5-min Rain = 0
KBO1 101248Z 25007KT M06/M07 A3033 RMK A01 T10561071  RH  089%=      5-min Rain = 0
KBO1 101249Z 25007KT M05/M07 A3033 RMK A01 T10541070  RH  089%=      5-min Rain = 0
KBO1 101250Z 26007KT M05/M07 A3033 RMK A01 T10531068  RH  089%=      5-min Rain = 0
KBO1 101251Z 26007KT M05/M07 A3033 RMK A01 T10511066  RH  089%=      5-min Rain = 0
KBO1 101252Z 26007KT M05/M07 A3033 RMK A01 T10501065  RH  089%=      5-min Rain = 0
KBO1 101253Z 26007KT M05/M06 A3033 RMK A01 T10481063  RH  089%=      5-min Rain = 0
KBO1 101254Z 26007KT M05/M06 A3033 RMK A01 T10471062  RH  089%=      5-min Rain = 0
KBO1 101255Z 26007KT M05/M06 A3033 RMK A01 T10461061  RH  089%=      5-min Rain = 0
KBO1 101256Z 25007KT M05/M06 A3033 RMK A01 T10451060  RH  089%=      5-min Rain = 0
KBO1 101257Z 25007KT M04/M06 A3033 RMK A01 T10441060  RH  089%=      5-min Rain = 0
KBO1 101258Z 25007KT M04/M06 A3033 RMK A01 T10441061  RH  088%=      5-min Rain = 0
KBO1 101259Z 25007KT M04/M06 A3033 RMK A01 T10441063  RH  087%=      5-min Rain = 0
KBO1 101300Z 25007KT M05/M06 A3033 RMK A01 T10451064  RH  087%=      5-min Rain = 0
KBO1 101301Z 25007KT M05/M07 A3033 RMK A01 T10461065  RH  087%=      5-min Rain = 0
KBO1 101302Z 25007KT M05/M07 A3033 RMK A01 T10481067  RH  087%=      5-min Rain = 0
KBO1 101303Z 25007KT M05/M07 A3033 RMK A01 T10491068  RH  087%=      5-min Rain = 0
KBO1 101304Z 25007KT M05/M07 A3033 RMK A01 T10501069  RH  086%=      5-min Rain = 0
KBO1 101305Z 25007KT M05/M07 A3033 RMK A01 T10511070  RH  087%=      5-min Rain = 0
KBO1 101306Z 25008KT M05/M07 A3034 RMK A01 T10521071  RH  087%=      5-min Rain = 0
KBO1 101307Z 25008KT M05/M07 A3034 RMK A01 T10531072  RH  087%=      5-min Rain = 0
KBO1 101308Z 25008KT M05/M07 A3034 RMK A01 T10541073  RH  087%=      5-min Rain = 0
KBO1 101309Z 25008KT M06/M07 A3034 RMK A01 T10551073  RH  087%=      5-min Rain = 0
KBO1 101310Z 25008KT M06/M07 A3034 RMK A01 T10561074  RH  087%=      5-min Rain = 0
KBO1 101311Z 25008KT M06/M07 A3034 RMK A01 T10561074  RH  087%=      5-min Rain = 0
KBO1 101312Z 25008KT M06/M08 A3034 RMK A01 T10571075  RH  087%=      5-min Rain = 0
KBO1 101313Z 25008KT M06/M08 A3034 RMK A01 T10581076  RH  087%=      5-min Rain = 0
KBO1 101314Z 25008KT M06/M08 A3034 RMK A01 T10591077  RH  087%=      5-min Rain = 0
KBO1 101315Z 25008KT M06/M08 A3034 RMK A01 T10591078  RH  087%=      5-min Rain = 0
KBO1 101316Z 25008KT M06/M08 A3034 RMK A01 T10601078  RH  087%=      5-min Rain = 0
KBO1 101317Z 25008KT M06/M08 A3034 RMK A01 T10611079  RH  087%=      5-min Rain = 0
KBO1 101318Z 25007KT M06/M08 A3034 RMK A01 T10621080  RH  087%=      5-min Rain = 0
KBO1 101319Z 25008KT M06/M08 A3034 RMK A01 T10631080  RH  087%=      5-min Rain = 0
KBO1 101320Z 25008KT M06/M08 A3034 RMK A01 T10631080  RH  087%=      5-min Rain = 0
KBO1 101321Z 25007KT M06/M08 A3034 RMK A01 T10631081  RH  087%=      5-min Rain = 0
KBO1 101322Z 25008KT M06/M08 A3034 RMK A01 T10641082  RH  087%=      5-min Rain = 0
KBO1 101323Z 25008KT M07/M08 A3034 RMK A01 T10651082  RH  088%=      5-min Rain = 0
KBO1 101324Z 25008KT M07/M08 A3034 RMK A01 T10651082  RH  088%=      5-min Rain = 0
KBO1 101325Z 25008KT M07/M08 A3034 RMK A01 T10661083  RH  088%=      5-min Rain = 0
KBO1 101326Z 25008KT M07/M08 A3034 RMK A01 T10661083  RH  088%=      5-min Rain = 0
KBO1 101327Z 25008KT M07/M08 A3034 RMK A01 T10661083  RH  088%=      5-min Rain = 0
KBO1 101328Z 25008KT M07/M08 A3034 RMK A01 T10661083  RH  088%=      5-min Rain = 0
KBO1 101329Z 25008KT M07/M08 A3034 RMK A01 T10671084  RH  088%=      5-min Rain = 0
KBO1 101330Z 25008KT M07/M09 A3034 RMK A01 T10681085  RH  088%=      5-min Rain = 0
KBO1 101331Z 25008KT M07/M09 A3034 RMK A01 T10691086  RH  088%=      5-min Rain = 0
KBO1 101332Z 25008KT M07/M09 A3034 RMK A01 T10701087  RH  088%=      5-min Rain = 0
KBO1 101333Z 25008KT M07/M09 A3034 RMK A01 T10701087  RH  088%=      5-min Rain = 0
KBO1 101334Z 25008KT M07/M09 A3034 RMK A01 T10711087  RH  088%=      5-min Rain = 0
KBO1 101335Z 25008KT M07/M09 A3034 RMK A01 T10701086  RH  088%=      5-min Rain = 0
KBO1 101336Z 25008KT M07/M09 A3034 RMK A01 T10701085  RH  089%=      5-min Rain = 0
KBO1 101337Z 25008KT M07/M09 A3034 RMK A01 T10701085  RH  089%=      5-min Rain = 0
KBO1 101338Z 25008KT M07/M09 A3034 RMK A01 T10691085  RH  089%=      5-min Rain = 0
KBO1 101339Z 25009KT M07/M08 A3034 RMK A01 T10691084  RH  089%=      5-min Rain = 0
KBO1 101340Z 25008KT M07/M08 A3034 RMK A01 T10691084  RH  089%=      5-min Rain = 0
KBO1 101341Z 26008KT M07/M08 A3034 RMK A01 T10691084  RH  089%=      5-min Rain = 0
KBO1 101342Z 26008KT M07/M08 A3034 RMK A01 T10681084  RH  089%=      5-min Rain = 0
KBO1 101343Z 26008KT M07/M08 A3034 RMK A01 T10681083  RH  089%=      5-min Rain = 0
KBO1 101344Z 26008KT M07/M08 A3034 RMK A01 T10681084  RH  089%=      5-min Rain = 0
KBO1 101345Z 26008KT M07/M08 A3034 RMK A01 T10681084  RH  089%=      5-min Rain = 0
KBO1 101346Z 26007KT M07/M08 A3034 RMK A01 T10681083  RH  089%=      5-min Rain = 0
KBO1 101347Z 27007KT M07/M08 A3034 RMK A01 T10681083  RH  089%=      5-min Rain = 0
KBO1 101348Z 27007KT M07/M08 A3034 RMK A01 T10671082  RH  089%=      5-min Rain = 0
KBO1 101349Z 27007KT M07/M08 A3034 RMK A01 T10651080  RH  089%=      5-min Rain = 0
KBO1 101350Z 27007KT M06/M08 A3034 RMK A01 T10641079  RH  090%=      5-min Rain = 0
KBO1 101351Z 27008KT M06/M08 A3034 RMK A01 T10641078  RH  090%=      5-min Rain = 0
KBO1 101352Z 27008KT M06/M08 A3034 RMK A01 T10621076  RH  090%=      5-min Rain = 0
KBO1 101353Z 27008KT M06/M08 A3034 RMK A01 T10611075  RH  090%=      5-min Rain = 0
KBO1 101354Z 27008KT M06/M07 A3034 RMK A01 T10601074  RH  090%=      5-min Rain = 0
KBO1 101355Z 27008KT M06/M08 A3034 RMK A01 T10601075  RH  089%=      5-min Rain = 0
KBO1 101356Z 27008KT M06/M07 A3034 RMK A01 T10591074  RH  089%=      5-min Rain = 0
KBO1 101357Z 27008KT M06/M07 A3034 RMK A01 T10581074  RH  089%=      5-min Rain = 0
KBO1 101358Z 27008KT M06/M07 A3034 RMK A01 T10581074  RH  088%=      5-min Rain = 0
KBO1 101359Z 27009KT M06/M07 A3034 RMK A01 T10581074  RH  088%=      5-min Rain = 0
KBO1 101400Z 27009KT M06/M07 A3034 RMK A01 T10581074  RH  088%=      5-min Rain = 0
KBO1 101401Z 27009KT M06/M08 A3034 RMK A01 T10581075  RH  088%=      5-min Rain = 0
KBO1 101402Z 27009KT M06/M08 A3034 RMK A01 T10581075  RH  088%=      5-min Rain = 0
KBO1 101403Z 27009KT M06/M07 A3034 RMK A01 T10571074  RH  088%=      5-min Rain = 0
KBO1 101404Z 27008KT M06/M07 A3034 RMK A01 T10571074  RH  088%=      5-min Rain = 0
KBO1 101405Z 27008KT M06/M07 A3034 RMK A01 T10571074  RH  088%=      5-min Rain = 0
KBO1 101406Z 26008KT M06/M07 A3034 RMK A01 T10561074  RH  087%=      5-min Rain = 0
KBO1 101407Z 26008KT M06/M07 A3034 RMK A01 T10561074  RH  087%=      5-min Rain = 0
KBO1 101408Z 26008KT M06/M07 A3034 RMK A01 T10561074  RH  087%=      5-min Rain = 0
KBO1 101409Z 26008KT M06/M07 A3034 RMK A01 T10561074  RH  087%=      5-min Rain = 0
KBO1 101410Z 26008KT M06/M07 A3034 RMK A01 T10551074  RH  087%=      5-min Rain = 0
KBO1 101411Z 26008KT M06/M07 A3034 RMK A01 T10561074  RH  087%=      5-min Rain = 0
KBO1 101412Z 26008KT M06/M07 A3034 RMK A01 T10551073  RH  087%=      5-min Rain = 0
KBO1 101413Z 26008KT M05/M07 A3034 RMK A01 T10541072  RH  088%=      5-min Rain = 0
KBO1 101414Z 26008KT M05/M07 A3034 RMK A01 T10541071  RH  088%=      5-min Rain = 0
KBO1 101415Z 26008KT M05/M07 A3034 RMK A01 T10531070  RH  088%=      5-min Rain = 0
KBO1 101416Z 26008KT M05/M07 A3034 RMK A01 T10531069  RH  088%=      5-min Rain = 0
KBO1 101417Z 26008KT M05/M07 A3034 RMK A01 T10521069  RH  088%=      5-min Rain = 0
KBO1 101418Z 25007KT M05/M07 A3034 RMK A01 T10511067  RH  088%=      5-min Rain = 0
KBO1 101419Z 25007KT M05/M07 A3034 RMK A01 T10491066  RH  088%=      5-min Rain = 0
KBO1 101420Z 25007KT M05/M06 A3034 RMK A01 T10481064  RH  088%=      5-min Rain = 0
KBO1 101421Z 25007KT M05/M06 A3034 RMK A01 T10471063  RH  088%=      5-min Rain = 0
KBO1 101422Z 25007KT M05/M06 A3034 RMK A01 T10461062  RH  088%=      5-min Rain = 0
KBO1 101423Z 25007KT M04/M06 A3034 RMK A01 T10441060  RH  088%=      5-min Rain = 0
KBO1 101424Z 26007KT M04/M06 A3034 RMK A01 T10421058  RH  088%=      5-min Rain = 0
KBO1 101425Z 26006KT M04/M06 A3034 RMK A01 T10401056  RH  088%=      5-min Rain = 0
KBO1 101426Z 26006KT M04/M05 A3034 RMK A01 T10381054  RH  088%=      5-min Rain = 0
KBO1 101427Z 26006KT M04/M05 A3034 RMK A01 T10361052  RH  088%=      5-min Rain = 0
KBO1 101428Z 26006KT M03/M05 A3034 RMK A01 T10341051  RH  088%=      5-min Rain = 0
KBO1 101429Z 26007KT M03/M05 A3034 RMK A01 T10321050  RH  087%=      5-min Rain = 0
KBO1 101430Z 26007KT M03/M05 A3034 RMK A01 T10301049  RH  087%=      5-min Rain = 0
KBO1 101431Z 25007KT M03/M05 A3034 RMK A01 T10291048  RH  087%=      5-min Rain = 0
KBO1 101432Z 25007KT M03/M05 A3034 RMK A01 T10271048  RH  086%=      5-min Rain = 0
KBO1 101433Z 25007KT M03/M05 A3035 RMK A01 T10261047  RH  086%=      5-min Rain = 0
KBO1 101434Z 25007KT M03/M05 A3035 RMK A01 T10251046  RH  085%=      5-min Rain = 0
KBO1 101435Z 25007KT M02/M05 A3035 RMK A01 T10241046  RH  085%=      5-min Rain = 0
KBO1 101436Z 25007KT M02/M05 A3035 RMK A01 T10231045  RH  085%=      5-min Rain = 0
KBO1 101437Z 25008KT M02/M04 A3035 RMK A01 T10221044  RH  085%=      5-min Rain = 0
KBO1 101438Z 25008KT M02/M04 A3035 RMK A01 T10211043  RH  085%=      5-min Rain = 0
KBO1 101439Z 25007KT M02/M04 A3035 RMK A01 T10201043  RH  084%=      5-min Rain = 0
KBO1 101440Z 25007KT M02/M04 A3035 RMK A01 T10191042  RH  084%=      5-min Rain = 0
KBO1 101441Z 25007KT M02/M04 A3035 RMK A01 T10181042  RH  084%=      5-min Rain = 0
KBO1 101442Z 25007KT M02/M04 A3035 RMK A01 T10171041  RH  084%=      5-min Rain = 0
KBO1 101443Z 25007KT M02/M04 A3035 RMK A01 T10171041  RH  083%=      5-min Rain = 0
KBO1 101444Z 25007KT M02/M04 A3035 RMK A01 T10161040  RH  084%=      5-min Rain = 0
KBO1 101445Z 25006KT M02/M04 A3035 RMK A01 T10151040  RH  084%=      5-min Rain = 0
KBO1 101446Z 25007KT M02/M04 A3035 RMK A01 T10151039  RH  084%=      5-min Rain = 0
KBO1 101447Z 25006KT M01/M04 A3035 RMK A01 T10141038  RH  084%=      5-min Rain = 0
KBO1 101448Z 24007KT M01/M04 A3035 RMK A01 T10131038  RH  083%=      5-min Rain = 0
KBO1 101449Z 25008KT M01/M04 A3035 RMK A01 T10121037  RH  083%=      5-min Rain = 0
KBO1 101450Z 25008KT M01/M04 A3035 RMK A01 T10121038  RH  082%=      5-min Rain = 0
KBO1 101451Z 25007KT M01/M04 A3035 RMK A01 T10121039  RH  082%=      5-min Rain = 0
KBO1 101452Z 25007KT M01/M04 A3035 RMK A01 T10121038  RH  082%=      5-min Rain = 0
KBO1 101453Z 25007KT M01/M04 A3035 RMK A01 T10111037  RH  082%=      5-min Rain = 0
KBO1 101454Z 25007KT M01/M04 A3035 RMK A01 T10101036  RH  082%=      5-min Rain = 0
KBO1 101455Z 25007KT M01/M04 A3035 RMK A01 T10091036  RH  082%=      5-min Rain = 0
KBO1 101456Z 25008KT M01/M04 A3035 RMK A01 T10091035  RH  082%=      5-min Rain = 0
KBO1 101457Z 25007KT M01/M03 A3035 RMK A01 T10071034  RH  082%=      5-min Rain = 0
KBO1 101458Z 26008KT M01/M03 A3035 RMK A01 T10061033  RH  082%=      5-min Rain = 0
KBO1 101459Z 26008KT M00/M03 A3035 RMK A01 T10041032  RH  082%=      5-min Rain = 0
KBO1 101500Z 26008KT M00/M03 A3035 RMK A01 T10031031  RH  081%=      5-min Rain = 0
KBO1 101501Z 26009KT M00/M03 A3035 RMK A01 T10021030  RH  081%=      5-min Rain = 0
KBO1 101502Z 25007KT 00/03 A3035 RMK A01 T00-00-30  RH  081%=      5-min Rain = 0
KBO1 101503Z 26007KT 00/M03 A3035 RMK A01 T00011029  RH  080%=      5-min Rain = 0
KBO1 101504Z 26008KT 00/M03 A3035 RMK A01 T00021028  RH  080%=      5-min Rain = 0
KBO1 101505Z 26007KT 00/M03 A3035 RMK A01 T00021029  RH  080%=      5-min Rain = 0
KBO1 101506Z 26008KT 00/M03 A3035 RMK A01 T00031028  RH  080%=      5-min Rain = 0
KBO1 101507Z 26008KT 00/M03 A3035 RMK A01 T00041028  RH  079%=      5-min Rain = 0
KBO1 101508Z 26008KT 00/M03 A3035 RMK A01 T00031029  RH  079%=      5-min Rain = 0
KBO1 101509Z 26007KT 00/M03 A3035 RMK A01 T00041029  RH  079%=      5-min Rain = 0
KBO1 101510Z 26007KT 00/M03 A3035 RMK A01 T00041028  RH  079%=      5-min Rain = 0
KBO1 101511Z 26008KT 01/M03 A3035 RMK A01 T00051027  RH  079%=      5-min Rain = 0
KBO1 101512Z 27007KT 01/M03 A3035 RMK A01 T00061026  RH  079%=      5-min Rain = 0
KBO1 101513Z 26006KT 01/M03 A3035 RMK A01 T00071026  RH  079%=      5-min Rain = 0
KBO1 101514Z 26006KT 01/M02 A3035 RMK A01 T00081024  RH  079%=      5-min Rain = 0
KBO1 101515Z 27007KT 01/M02 A3035 RMK A01 T00091023  RH  079%=      5-min Rain = 0
KBO1 101516Z 26006KT 01/M02 A3035 RMK A01 T00101022  RH  079%=      5-min Rain = 0
KBO1 101517Z 26006KT 01/M02 A3035 RMK A01 T00111021  RH  079%=      5-min Rain = 0
KBO1 101518Z 26007KT 01/M02 A3035 RMK A01 T00111021  RH  079%=      5-min Rain = 0
KBO1 101519Z 26007KT 01/M02 A3035 RMK A01 T00121021  RH  078%=      5-min Rain = 0
KBO1 101520Z 26008KT 01/M02 A3035 RMK A01 T00131022  RH  078%=      5-min Rain = 0
KBO1 101521Z 26008KT 01/M02 A3036 RMK A01 T00131022  RH  077%=      5-min Rain = 0
KBO1 101522Z 26008KT 01/M02 A3035 RMK A01 T00141022  RH  077%=      5-min Rain = 0
KBO1 101523Z 25007KT 02/M02 A3036 RMK A01 T00151021  RH  077%=      5-min Rain = 0
KBO1 101524Z 26008KT 02/M02 A3036 RMK A01 T00161020  RH  077%=      5-min Rain = 0
KBO1 101525Z 25006KT 02/M02 A3036 RMK A01 T00171020  RH  076%=      5-min Rain = 0
KBO1 101526Z 25006KT 02/M02 A3036 RMK A01 T00181017  RH  077%=      5-min Rain = 0
KBO1 101527Z 25006KT 02/M02 A3036 RMK A01 T00201016  RH  077%=      5-min Rain = 0
KBO1 101528Z 25006KT 02/M02 A3036 RMK A01 T00211016  RH  076%=      5-min Rain = 0
KBO1 101529Z 25007KT 02/M02 A3036 RMK A01 T00221016  RH  076%=      5-min Rain = 0
KBO1 101530Z 25007KT 02/M02 A3036 RMK A01 T00231015  RH  076%=      5-min Rain = 0
KBO1 101531Z 25005KT 02/M02 A3036 RMK A01 T00241015  RH  075%=      5-min Rain = 0
KBO1 101532Z 26007KT 03/M01 A3036 RMK A01 T00251013  RH  076%=      5-min Rain = 0
KBO1 101533Z 26008KT 03/M02 A3036 RMK A01 T00261015  RH  074%=      5-min Rain = 0
KBO1 101534Z 25007KT 03/M02 A3036 RMK A01 T00271015  RH  074%=      5-min Rain = 0
KBO1 101535Z 26008KT 03/M02 A3036 RMK A01 T00281015  RH  073%=      5-min Rain = 0
KBO1 101536Z 26007KT 03/M02 A3036 RMK A01 T00291015  RH  073%=      5-min Rain = 0
KBO1 101537Z 26007KT 03/M02 A3036 RMK A01 T00301015  RH  072%=      5-min Rain = 0
KBO1 101538Z 26007KT 03/M01 A3036 RMK A01 T00311014  RH  073%=      5-min Rain = 0
KBO1 101539Z 26007KT 03/M01 A3036 RMK A01 T00321013  RH  072%=      5-min Rain = 0
KBO1 101540Z 25006KT 03/M01 A3036 RMK A01 T00341011  RH  072%=      5-min Rain = 0
KBO1 101541Z 26007KT 04/M01 A3036 RMK A01 T00351011  RH  072%=      5-min Rain = 0
KBO1 101542Z 26007KT 04/M01 A3036 RMK A01 T00361010  RH  072%=      5-min Rain = 0
KBO1 101543Z 25006KT 04/M01 A3036 RMK A01 T00371010  RH  072%=      5-min Rain = 0
KBO1 101544Z 26006KT 04/M01 A3036 RMK A01 T00381008  RH  072%=      5-min Rain = 0
KBO1 101545Z 26007KT 04/M01 A3036 RMK A01 T00401006  RH  072%=      5-min Rain = 0
KBO1 101546Z 26006KT 04/M01 A3036 RMK A01 T00411007  RH  071%=      5-min Rain = 0
KBO1 101547Z 26007KT 04/M01 A3036 RMK A01 T00421007  RH  071%=      5-min Rain = 0
KBO1 101548Z 26008KT 04/M01 A3036 RMK A01 T00431007  RH  070%=      5-min Rain = 0
KBO1 101549Z 26007KT 04/M01 A3036 RMK A01 T00441008  RH  069%=      5-min Rain = 0
KBO1 101550Z 27008KT 05/M01 A3036 RMK A01 T00451007  RH  069%=      5-min Rain = 0
KBO1 101551Z 27007KT 05/M01 A3036 RMK A01 T00461007  RH  068%=      5-min Rain = 0
KBO1 101552Z 28005KT 05/M01 A3036 RMK A01 T00471005  RH  069%=      5-min Rain = 0
KBO1 101553Z 28007KT 05/M00 A3036 RMK A01 T00501003  RH  068%=      5-min Rain = 0
KBO1 101554Z 27007KT 05/M00 A3036 RMK A01 T00521003  RH  067%=      5-min Rain = 0
KBO1 101555Z 27009KT 05/M01 A3036 RMK A01 T00531006  RH  066%=      5-min Rain = 0
KBO1 101556Z 28008KT 05/M01 A3036 RMK A01 T00531007  RH  065%=      5-min Rain = 0
KBO1 101557Z 28009KT 05/M01 A3036 RMK A01 T00531008  RH  065%=      5-min Rain = 0
KBO1 101558Z 27008KT 06/M01 A3036 RMK A01 T00551007  RH  064%=      5-min Rain = 0
KBO1 101559Z 28009KT 06/M01 A3036 RMK A01 T00561007  RH  064%=      5-min Rain = 0
KBO1 101600Z 28009KT 06/M01 A3036 RMK A01 T00561008  RH  064%=      5-min Rain = 0
KBO1 101601Z 28009KT 06/M01 A3036 RMK A01 T00571008  RH  063%=      5-min Rain = 0
KBO1 101602Z 29009KT 06/M01 A3036 RMK A01 T00571008  RH  063%=      5-min Rain = 0
KBO1 101603Z 28009KT 06/M01 A3036 RMK A01 T00581008  RH  062%=      5-min Rain = 0
KBO1 101604Z 27009KT 06/M01 A3036 RMK A01 T00591009  RH  062%=      5-min Rain = 0
KBO1 101605Z 28009KT 06/M01 A3036 RMK A01 T00591011  RH  061%=      5-min Rain = 0
KBO1 101606Z 28012KT 06/M01 A3036 RMK A01 T00601012  RH  060%=      5-min Rain = 0
KBO1 101607Z 28008KT 06/M01 A3036 RMK A01 T00601013  RH  060%=      5-min Rain = 0
KBO1 101608Z 28010KT 06/M01 A3036 RMK A01 T00611010  RH  060%=      5-min Rain = 0
KBO1 101609Z 28008KT 06/M01 A3036 RMK A01 T00631012  RH  059%=      5-min Rain = 0
KBO1 101610Z 27008KT 06/M01 A3036 RMK A01 T00631011  RH  059%=      5-min Rain = 0
KBO1 101611Z 27008KT 06/M01 A3036 RMK A01 T00641009  RH  059%=      5-min Rain = 0
KBO1 101612Z 27008KT 07/M01 A3036 RMK A01 T00651010  RH  059%=      5-min Rain = 0
KBO1 101613Z 28008KT 07/M01 A3036 RMK A01 T00651011  RH  058%=      5-min Rain = 0
KBO1 101614Z 26009KT 07/M01 A3036 RMK A01 T00661010  RH  058%=      5-min Rain = 0
KBO1 101615Z 27009KT 07/M01 A3036 RMK A01 T00671011  RH  058%=      5-min Rain = 0
KBO1 101616Z 28009KT 07/M01 A3036 RMK A01 T00671012  RH  057%=      5-min Rain = 0
KBO1 101617Z 27009KT 07/M01 A3036 RMK A01 T00671013  RH  057%=      5-min Rain = 0
KBO1 101618Z 27009KT 07/M01 A3036 RMK A01 T00671014  RH  056%=      5-min Rain = 0
KBO1 101619Z 27009KT 07/M01 A3036 RMK A01 T00681014  RH  056%=      5-min Rain = 0
KBO1 101620Z 28010KT 07/M01 A3036 RMK A01 T00691014  RH  056%=      5-min Rain = 0
KBO1 101621Z 27009KT 07/M02 A3036 RMK A01 T00691015  RH  055%=      5-min Rain = 0
KBO1 101622Z 28008KT 07/M01 A3036 RMK A01 T00691013  RH  056%=      5-min Rain = 0
KBO1 101623Z 28011KT 07/M01 A3036 RMK A01 T00711014  RH  055%=      5-min Rain = 0
KBO1 101624Z 28010KT 07/M02 A3036 RMK A01 T00711016  RH  054%=      5-min Rain = 0
KBO1 101625Z 28008KT 07/M02 A3036 RMK A01 T00711016  RH  054%=      5-min Rain = 0
KBO1 101626Z 28007KT 07/M01 A3036 RMK A01 T00721014  RH  055%=      5-min Rain = 0
KBO1 101627Z 27009KT 07/M01 A3036 RMK A01 T00741013  RH  054%=      5-min Rain = 0
KBO1 101628Z 27009KT 08/M02 A3036 RMK A01 T00751015  RH  053%=      5-min Rain = 0
KBO1 101629Z 27010KT 08/M02 A3036 RMK A01 T00751015  RH  053%=      5-min Rain = 0
KBO1 101630Z 27010KT 08/M02 A3036 RMK A01 T00751017  RH  052%=      5-min Rain = 0
KBO1 101631Z 26010KT 08/M02 A3036 RMK A01 T00761016  RH  052%=      5-min Rain = 0
KBO1 101632Z 26010KT 08/M02 A3036 RMK A01 T00751017  RH  052%=      5-min Rain = 0
KBO1 101633Z 27009KT 08/M02 A3036 RMK A01 T00751017  RH  052%=      5-min Rain = 0
KBO1 101634Z 28009KT 08/M02 A3036 RMK A01 T00751018  RH  052%=      5-min Rain = 0
KBO1 101635Z 28009KT 08/M02 A3036 RMK A01 T00761016  RH  052%=      5-min Rain = 0
KBO1 101636Z 27008KT 08/M02 A3036 RMK A01 T00771016  RH  052%=      5-min Rain = 0
KBO1 101637Z 26008KT 08/M02 A3036 RMK A01 T00771016  RH  052%=      5-min Rain = 0
KBO1 101638Z 25008KT 08/M02 A3036 RMK A01 T00781016  RH  051%=      5-min Rain = 0
KBO1 101639Z 26009KT 08/M02 A3036 RMK A01 T00781017  RH  051%=      5-min Rain = 0
KBO1 101640Z 26009KT 08/M02 A3036 RMK A01 T00791015  RH  052%=      5-min Rain = 0
KBO1 101641Z 26008KT 08/M01 A3036 RMK A01 T00791014  RH  052%=      5-min Rain = 0
KBO1 101642Z 29007KT 08/M01 A3036 RMK A01 T00801014  RH  052%=      5-min Rain = 0
KBO1 101643Z 28007KT 08/M02 A3036 RMK A01 T00811015  RH  051%=      5-min Rain = 0
KBO1 101644Z 28007KT 08/M01 A3036 RMK A01 T00821014  RH  051%=      5-min Rain = 0
KBO1 101645Z 29008KT 08/M01 A3036 RMK A01 T00841014  RH  050%=      5-min Rain = 0
KBO1 101646Z 29008KT 09/M02 A3035 RMK A01 T00851016  RH  049%=      5-min Rain = 0
KBO1 101647Z 28006KT 08/M02 A3035 RMK A01 T00841015  RH  050%=      5-min Rain = 0
KBO1 101648Z 28006KT 09/M01 A3035 RMK A01 T00861014  RH  049%=      5-min Rain = 0
KBO1 101649Z 30008KT 09/M02 A3035 RMK A01 T00871017  RH  048%=      5-min Rain = 0
KBO1 101650Z 29009KT 09/M02 A3035 RMK A01 T00871019  RH  047%=      5-min Rain = 0
KBO1 101651Z 28007KT 09/M02 A3035 RMK A01 T00851020  RH  048%=      5-min Rain = 0
KBO1 101652Z 28007KT 09/M02 A3035 RMK A01 T00851018  RH  048%=      5-min Rain = 0
KBO1 101653Z 28007KT 09/M02 A3035 RMK A01 T00861019  RH  048%=      5-min Rain = 0
KBO1 101654Z 29008KT 09/M02 A3035 RMK A01 T00861020  RH  047%=      5-min Rain = 0
KBO1 101655Z 29008KT 09/M02 A3035 RMK A01 T00871022  RH  046%=      5-min Rain = 0
KBO1 101656Z 30008KT 09/M02 A3035 RMK A01 T00871022  RH  046%=      5-min Rain = 0
KBO1 101657Z 30007KT 09/M02 A3035 RMK A01 T00871023  RH  046%=      5-min Rain = 0
KBO1 101658Z 30006KT 09/M02 A3035 RMK A01 T00861024  RH  046%=      5-min Rain = 0
KBO1 101659Z 29006KT 09/M02 A3035 RMK A01 T00861022  RH  047%=      5-min Rain = 0
KBO1 101700Z 27006KT 09/M02 A3035 RMK A01 T00871022  RH  046%=      5-min Rain = 0
KBO1 101701Z 27005KT 09/M03 A3035 RMK A01 T00881025  RH  045%=      5-min Rain = 0
KBO1 101702Z 29006KT 09/M03 A3035 RMK A01 T00881025  RH  045%=      5-min Rain = 0
KBO1 101703Z 29006KT 09/M02 A3035 RMK A01 T00891024  RH  045%=      5-min Rain = 0
KBO1 101704Z 30005KT 09/M02 A3035 RMK A01 T00891024  RH  045%=      5-min Rain = 0
KBO1 101705Z 32006KT 09/M02 A3035 RMK A01 T00901020  RH  046%=      5-min Rain = 0
KBO1 101706Z 32006KT 09/M02 A3035 RMK A01 T00881018  RH  047%=      5-min Rain = 0
KBO1 101707Z 30005KT 09/M02 A3035 RMK A01 T00881018  RH  047%=      5-min Rain = 0
KBO1 101708Z 30006KT 09/M02 A3035 RMK A01 T00881018  RH  047%=      5-min Rain = 0
KBO1 101709Z 31005KT 09/M02 A3035 RMK A01 T00891018  RH  047%=      5-min Rain = 0
KBO1 101710Z 33005KT 09/M02 A3035 RMK A01 T00881018  RH  047%=      5-min Rain = 0
KBO1 101711Z 32006KT 09/M02 A3035 RMK A01 T00881019  RH  047%=      5-min Rain = 0
KBO1 101712Z 31006KT 09/M02 A3035 RMK A01 T00881020  RH  047%=      5-min Rain = 0
KBO1 101713Z 33003KT 09/M02 A3035 RMK A01 T00901020  RH  046%=      5-min Rain = 0
KBO1 101714Z 34005KT 09/M02 A3035 RMK A01 T00901020  RH  046%=      5-min Rain = 0
KBO1 101715Z 33007KT 09/M02 A3035 RMK A01 T00901021  RH  046%=      5-min Rain = 0
KBO1 101716Z 33006KT 09/M02 A3035 RMK A01 T00901020  RH  046%=      5-min Rain = 0
KBO1 101717Z 32006KT 09/M02 A3035 RMK A01 T00911020  RH  046%=      5-min Rain = 0
KBO1 101718Z 32004KT 09/M02 A3035 RMK A01 T00921021  RH  045%=      5-min Rain = 0
KBO1 101719Z 30005KT 09/M02 A3035 RMK A01 T00921022  RH  045%=      5-min Rain = 0
KBO1 101720Z 32003KT 09/M03 A3035 RMK A01 T00911025  RH  044%=      5-min Rain = 0
KBO1 101721Z 32007KT 09/M03 A3035 RMK A01 T00911025  RH  044%=      5-min Rain = 0
KBO1 101722Z 30004KT 09/M03 A3035 RMK A01 T00911027  RH  044%=      5-min Rain = 0
KBO1 101723Z 32005KT 09/M03 A3035 RMK A01 T00901025  RH  044%=      5-min Rain = 0
KBO1 101724Z 32006KT 09/M03 A3035 RMK A01 T00901025  RH  044%=      5-min Rain = 0
KBO1 101725Z 33006KT 09/M03 A3035 RMK A01 T00901025  RH  044%=      5-min Rain = 0
KBO1 101726Z 33004KT 09/M03 A3035 RMK A01 T00901025  RH  044%=      5-min Rain = 0
KBO1 101727Z 35004KT 09/M03 A3035 RMK A01 T00901026  RH  044%=      5-min Rain = 0
KBO1 101728Z 35003KT 09/M03 A3035 RMK A01 T00891027  RH  044%=      5-min Rain = 0
KBO1 101729Z 31005KT 09/M02 A3035 RMK A01 T00901024  RH  045%=      5-min Rain = 0
KBO1 101730Z 33004KT 09/M02 A3034 RMK A01 T00921024  RH  044%=      5-min Rain = 0
KBO1 101731Z 33004KT 09/M03 A3034 RMK A01 T00921025  RH  044%=      5-min Rain = 0
KBO1 101732Z 34004KT 09/M03 A3034 RMK A01 T00921025  RH  044%=      5-min Rain = 0
KBO1 101733Z 35005KT 09/M03 A3034 RMK A01 T00931026  RH  043%=      5-min Rain = 0
KBO1 101734Z 36004KT 09/M03 A3034 RMK A01 T00931026  RH  043%=      5-min Rain = 0
KBO1 101735Z 34007KT 09/M03 A3034 RMK A01 T00921025  RH  044%=      5-min Rain = 0
KBO1 101736Z 32007KT 09/M02 A3034 RMK A01 T00941023  RH  044%=      5-min Rain = 0
KBO1 101737Z 33005KT 09/M02 A3034 RMK A01 T00941023  RH  044%=      5-min Rain = 0
KBO1 101738Z 34006KT 09/M02 A3034 RMK A01 T00941024  RH  043%=      5-min Rain = 0
KBO1 101739Z 33005KT 09/M03 A3034 RMK A01 T00941025  RH  043%=      5-min Rain = 0
KBO1 101740Z 31006KT 09/M03 A3034 RMK A01 T00931025  RH  044%=      5-min Rain = 0
KBO1 101741Z 33006KT 09/M02 A3034 RMK A01 T00931024  RH  044%=      5-min Rain = 0
KBO1 101742Z 32006KT 09/M02 A3034 RMK A01 T00941024  RH  043%=      5-min Rain = 0
KBO1 101743Z 33005KT 10/M03 A3034 RMK A01 T00951025  RH  043%=      5-min Rain = 0
KBO1 101744Z 32005KT 10/M02 A3034 RMK A01 T00971024  RH  043%=      5-min Rain = 0
KBO1 101745Z 33007KT 10/M03 A3034 RMK A01 T00971025  RH  042%=      5-min Rain = 0
KBO1 101746Z 33006KT 10/M03 A3034 RMK A01 T00971026  RH  042%=      5-min Rain = 0
KBO1 101747Z 33006KT 10/M03 A3034 RMK A01 T00961026  RH  042%=      5-min Rain = 0
KBO1 101748Z 32005KT 10/M03 A3034 RMK A01 T00951026  RH  043%=      5-min Rain = 0
KBO1 101749Z 32006KT 10/M03 A3034 RMK A01 T00951027  RH  042%=      5-min Rain = 0
KBO1 101750Z 34004KT 10/M03 A3034 RMK A01 T00951025  RH  043%=      5-min Rain = 0
KBO1 101751Z 33004KT 10/M02 A3034 RMK A01 T00961024  RH  043%=      5-min Rain = 0
KBO1 101752Z 34004KT 10/M02 A3034 RMK A01 T00991024  RH  042%=      5-min Rain = 0
KBO1 101753Z 32006KT 10/M03 A3034 RMK A01 T01001025  RH  041%=      5-min Rain = 0
KBO1 101754Z 34007KT 10/M03 A3034 RMK A01 T00991026  RH  041%=      5-min Rain = 0
KBO1 101755Z 34006KT 10/M03 A3034 RMK A01 T00981027  RH  041%=      5-min Rain = 0
KBO1 101756Z 33006KT 10/M03 A3034 RMK A01 T00971027  RH  041%=      5-min Rain = 0
KBO1 101757Z 33007KT 10/M03 A3033 RMK A01 T00981027  RH  041%=      5-min Rain = 0
KBO1 101758Z 33005KT 10/M03 A3033 RMK A01 T00981029  RH  041%=      5-min Rain = 0
KBO1 101759Z 32004KT 10/M03 A3033 RMK A01 T00961028  RH  042%=      5-min Rain = 0
KBO1 101800Z 32004KT 10/M03 A3033 RMK A01 T00971028  RH  041%=      5-min Rain = 0
KBO1 101801Z 33005KT 10/M03 A3033 RMK A01 T00971029  RH  041%=      5-min Rain = 0
KBO1 101802Z 32004KT 10/M03 A3033 RMK A01 T00951030  RH  041%=      5-min Rain = 0
KBO1 101803Z 31005KT 10/M03 A3033 RMK A01 T00951028  RH  042%=      5-min Rain = 0
KBO1 101804Z 31006KT 10/M03 A3033 RMK A01 T00971029  RH  041%=      5-min Rain = 0
KBO1 101805Z 33006KT 10/M03 A3033 RMK A01 T00971030  RH  041%=      5-min Rain = 0
KBO1 101806Z 32006KT 10/M03 A3033 RMK A01 T00971030  RH  041%=      5-min Rain = 0
KBO1 101807Z 32006KT 10/M03 A3033 RMK A01 T00971031  RH  040%=      5-min Rain = 0
KBO1 101808Z 32006KT 10/M03 A3033 RMK A01 T00971030  RH  041%=      5-min Rain = 0
KBO1 101809Z 32005KT 10/M03 A3033 RMK A01 T00971030  RH  041%=      5-min Rain = 0
KBO1 101810Z 34004KT 10/M03 A3033 RMK A01 T00961031  RH  041%=      5-min Rain = 0
KBO1 101811Z 33006KT 10/M03 A3033 RMK A01 T00961031  RH  041%=      5-min Rain = 0
KBO1 101812Z 33007KT 10/M03 A3032 RMK A01 T00971032  RH  040%=      5-min Rain = 0
KBO1 101813Z 33005KT 10/M03 A3032 RMK A01 T00961031  RH  041%=      5-min Rain = 0
KBO1 101814Z 32005KT 10/M03 A3032 RMK A01 T00971032  RH  040%=      5-min Rain = 0
KBO1 101815Z 32006KT 10/M03 A3032 RMK A01 T00971031  RH  041%=      5-min Rain = 0
KBO1 101816Z 31006KT 10/M03 A3032 RMK A01 T00981031  RH  040%=      5-min Rain = 0
KBO1 101817Z 32004KT 10/M03 A3032 RMK A01 T00981030  RH  040%=      5-min Rain = 0
KBO1 101818Z 34005KT 10/M03 A3032 RMK A01 T01001029  RH  040%=      5-min Rain = 0
KBO1 101819Z 36004KT 10/M03 A3032 RMK A01 T01001032  RH  039%=      5-min Rain = 0
KBO1 101820Z 02004KT 10/M03 A3032 RMK A01 T00991034  RH  039%=      5-min Rain = 0
KBO1 101821Z 32005KT 10/M03 A3032 RMK A01 T00991032  RH  040%=      5-min Rain = 0
KBO1 101822Z 31003KT 10/M03 A3032 RMK A01 T01001033  RH  039%=      5-min Rain = 0
KBO1 101823Z 33002KT 10/M03 A3032 RMK A01 T00981034  RH  039%=      5-min Rain = 0
KBO1 101824Z 31005KT 10/M03 A3032 RMK A01 T00991033  RH  039%=      5-min Rain = 0
KBO1 101825Z 34005KT 10/M03 A3032 RMK A01 T00991034  RH  039%=      5-min Rain = 0
KBO1 101826Z 36005KT 10/M04 A3032 RMK A01 T00991035  RH  039%=      5-min Rain = 0
KBO1 101827Z 36003KT 10/M04 A3032 RMK A01 T00971035  RH  039%=      5-min Rain = 0
KBO1 101828Z 01004KT 10/M03 A3032 RMK A01 T00971034  RH  040%=      5-min Rain = 0
KBO1 101829Z 35004KT 10/M04 A3032 RMK A01 T00981035  RH  039%=      5-min Rain = 0
KBO1 101830Z 35003KT 10/M04 A3032 RMK A01 T00981035  RH  039%=      5-min Rain = 0
KBO1 101831Z 35004KT 10/M03 A3032 RMK A01 T00991034  RH  039%=      5-min Rain = 0
KBO1 101832Z 01004KT 10/M04 A3032 RMK A01 T01011035  RH  038%=      5-min Rain = 0
KBO1 101833Z 02003KT 10/M04 A3032 RMK A01 T01001035  RH  038%=      5-min Rain = 0
KBO1 101834Z 02003KT 10/M03 A3032 RMK A01 T01011034  RH  039%=      5-min Rain = 0
KBO1 101835Z 04002KT 10/M04 A3031 RMK A01 T01011035  RH  038%=      5-min Rain = 0
KBO1 101836Z 02002KT 10/M04 A3031 RMK A01 T01021036  RH  038%=      5-min Rain = 0
KBO1 101837Z 00002KT 10/M04 A3031 RMK A01 T01031035  RH  038%=      5-min Rain = 0
KBO1 101838Z 02004KT 10/M04 A3031 RMK A01 T01031035  RH  038%=      5-min Rain = 0
KBO1 101839Z 04003KT 10/M04 A3031 RMK A01 T01031036  RH  037%=      5-min Rain = 0
KBO1 101840Z 03002KT 10/M04 A3031 RMK A01 T01041036  RH  037%=      5-min Rain = 0
KBO1 101841Z 00003KT 10/M04 A3031 RMK A01 T01041035  RH  037%=      5-min Rain = 0
KBO1 101842Z 35002KT 11/M03 A3031 RMK A01 T01071033  RH  037%=      5-min Rain = 0
KBO1 101843Z 32003KT 11/M03 A3031 RMK A01 T01091034  RH  037%=      5-min Rain = 0
KBO1 101844Z 34004KT 11/M04 A3031 RMK A01 T01111035  RH  036%=      5-min Rain = 0
KBO1 101845Z 32004KT 11/M04 A3031 RMK A01 T01091037  RH  036%=      5-min Rain = 0
KBO1 101846Z 30003KT 11/M04 A3031 RMK A01 T01061038  RH  036%=      5-min Rain = 0
KBO1 101847Z 29003KT 11/M04 A3031 RMK A01 T01051037  RH  036%=      5-min Rain = 0
KBO1 101848Z 28004KT 11/M04 A3031 RMK A01 T01051037  RH  037%=      5-min Rain = 0
KBO1 101849Z 29004KT 11/M04 A3031 RMK A01 T01061036  RH  037%=      5-min Rain = 0
KBO1 101850Z 26003KT 11/M04 A3031 RMK A01 T01071037  RH  036%=      5-min Rain = 0
KBO1 101851Z 26001KT 11/M04 A3031 RMK A01 T01071039  RH  036%=      5-min Rain = 0
KBO1 101852Z 17000KT 11/M04 A3031 RMK A01 T01081040  RH  035%=      5-min Rain = 0
KBO1 101853Z 16002KT 11/M04 A3031 RMK A01 T01091039  RH  035%=      5-min Rain = 0
KBO1 101854Z 15002KT 11/M04 A3031 RMK A01 T01101040  RH  035%=      5-min Rain = 0
KBO1 101855Z 18001KT 11/M04 A303 RMK A01 T01111040  RH  034%=      5-min Rain = 0
KBO1 101856Z 27001KT 11/M04 A303 RMK A01 T01111040  RH  035%=      5-min Rain = 0
KBO1 101857Z 29001KT 11/M04 A303 RMK A01 T01131038  RH  035%=      5-min Rain = 0
KBO1 101858Z 26002KT 11/M04 A303 RMK A01 T01131038  RH  034%=      5-min Rain = 0
KBO1 101859Z 27004KT 11/M04 A303 RMK A01 T01141038  RH  034%=      5-min Rain = 0
KBO1 101900Z 31004KT 12/M04 A303 RMK A01 T01151038  RH  034%=      5-min Rain = 0
KBO1 101901Z 27004KT 12/M04 A303 RMK A01 T01161036  RH  034%=      5-min Rain = 0
KBO1 101902Z 30002KT 12/M04 A303 RMK A01 T01171037  RH  034%=      5-min Rain = 0
KBO1 101903Z 29003KT 12/M04 A303 RMK A01 T01171037  RH  034%=      5-min Rain = 0
KBO1 101904Z 27004KT 12/M04 A303 RMK A01 T01181038  RH  034%=      5-min Rain = 0
KBO1 101905Z 28002KT 12/M04 A303 RMK A01 T01171040  RH  033%=      5-min Rain = 0
KBO1 101906Z 35001KT 12/M04 A303 RMK A01 T01161041  RH  033%=      5-min Rain = 0
KBO1 101907Z 29003KT 12/M04 A303 RMK A01 T01161040  RH  033%=      5-min Rain = 0
KBO1 101908Z 26005KT 12/M04 A303 RMK A01 T01171040  RH  033%=      5-min Rain = 0
KBO1 101909Z 26005KT 12/M04 A303 RMK A01 T01181039  RH  033%=      5-min Rain = 0
KBO1 101910Z 25004KT 12/M04 A303 RMK A01 T01191040  RH  033%=      5-min Rain = 0
KBO1 101911Z 25007KT 12/M04 A303 RMK A01 T01191041  RH  033%=      5-min Rain = 0
KBO1 101912Z 24005KT 12/M04 A303 RMK A01 T01191042  RH  032%=      5-min Rain = 0
KBO1 101913Z 24003KT 12/M04 A3029 RMK A01 T01191041  RH  033%=      5-min Rain = 0
KBO1 101914Z 21001KT 12/M04 A3029 RMK A01 T01191040  RH  033%=      5-min Rain = 0
KBO1 101915Z 23002KT 12/M04 A3029 RMK A01 T01201040  RH  032%=      5-min Rain = 0
KBO1 101916Z 23006KT 12/M04 A3029 RMK A01 T01221040  RH  032%=      5-min Rain = 0
KBO1 101917Z 23006KT 12/M05 A3029 RMK A01 T01231046  RH  030%=      5-min Rain = 0
KBO1 101918Z 23003KT 12/M05 A3029 RMK A01 T01211050  RH  030%=      5-min Rain = 0
KBO1 101919Z 19002KT 12/M05 A3029 RMK A01 T01191048  RH  031%=      5-min Rain = 0
KBO1 101920Z 23002KT 12/M04 A3029 RMK A01 T01211044  RH  031%=      5-min Rain = 0
KBO1 101921Z 25003KT 12/M05 A3029 RMK A01 T01231046  RH  030%=      5-min Rain = 0
KBO1 101922Z 23007KT 12/M05 A3029 RMK A01 T01221049  RH  030%=      5-min Rain = 0
KBO1 101923Z 22006KT 12/M06 A3029 RMK A01 T01221055  RH  029%=      5-min Rain = 0
KBO1 101924Z 22004KT 12/M06 A3029 RMK A01 T01221057  RH  028%=      5-min Rain = 0
KBO1 101925Z 21003KT 12/M06 A3029 RMK A01 T01221055  RH  029%=      5-min Rain = 0
KBO1 101926Z 23004KT 12/M05 A3029 RMK A01 T01231052  RH  029%=      5-min Rain = 0
KBO1 101927Z 24006KT 12/M05 A3029 RMK A01 T01241050  RH  029%=      5-min Rain = 0
KBO1 101928Z 24005KT 12/M05 A3029 RMK A01 T01241053  RH  029%=      5-min Rain = 0
KBO1 101929Z 26004KT 12/M06 A3029 RMK A01 T01231056  RH  028%=      5-min Rain = 0
KBO1 101930Z 29003KT 12/M06 A3029 RMK A01 T01231057  RH  028%=      5-min Rain = 0
KBO1 101931Z 25002KT 12/M06 A3029 RMK A01 T01221057  RH  028%=      5-min Rain = 0
KBO1 101932Z 19002KT 12/M06 A3029 RMK A01 T01231058  RH  028%=      5-min Rain = 0
KBO1 101933Z 19001KT 12/M06 A3029 RMK A01 T01241061  RH  027%=      5-min Rain = 0
KBO1 101934Z 21004KT 13/M06 A3029 RMK A01 T01251062  RH  027%=      5-min Rain = 0
KBO1 101935Z 21006KT 13/M06 A3028 RMK A01 T01271059  RH  027%=      5-min Rain = 0
KBO1 101936Z 23006KT 13/M06 A3028 RMK A01 T01281060  RH  026%=      5-min Rain = 0
KBO1 101937Z 22007KT 13/M06 A3028 RMK A01 T01281063  RH  026%=      5-min Rain = 0
KBO1 101938Z 21008KT 13/M07 A3028 RMK A01 T01301065  RH  025%=      5-min Rain = 0
KBO1 101939Z 23006KT 13/M07 A3028 RMK A01 T01301065  RH  025%=      5-min Rain = 0
KBO1 101940Z 22007KT 13/M07 A3028 RMK A01 T01281068  RH  025%=      5-min Rain = 0
KBO1 101941Z 21007KT 13/M08 A3028 RMK A01 T01261079  RH  023%=      5-min Rain = 0
KBO1 101942Z 24008KT 13/M08 A3028 RMK A01 T01261080  RH  023%=      5-min Rain = 0
KBO1 101943Z 24005KT 13/M08 A3028 RMK A01 T01271081  RH  023%=      5-min Rain = 0
KBO1 101944Z 24005KT 13/M08 A3028 RMK A01 T01261084  RH  022%=      5-min Rain = 0
KBO1 101945Z 26004KT 13/M08 A3028 RMK A01 T01251083  RH  023%=      5-min Rain = 0
KBO1 101946Z 24004KT 13/M08 A3028 RMK A01 T01251081  RH  023%=      5-min Rain = 0
KBO1 101947Z 23006KT 13/M08 A3028 RMK A01 T01271081  RH  023%=      5-min Rain = 0
KBO1 101948Z 22006KT 13/M09 A3028 RMK A01 T01301089  RH  021%=      5-min Rain = 0
KBO1 101949Z 21007KT 13/M09 A3028 RMK A01 T01301092  RH  020%=      5-min Rain = 0
KBO1 101950Z 23008KT 13/M09 A3028 RMK A01 T01301092  RH  020%=      5-min Rain = 0
KBO1 101951Z 23007KT 13/M10 A3028 RMK A01 T01301098  RH  019%=      5-min Rain = 0
KBO1 101952Z 20005KT 13/M11 A3028 RMK A01 T01281107  RH  018%=      5-min Rain = 0
KBO1 101953Z 19005KT 13/M11 A3028 RMK A01 T01271106  RH  019%=      5-min Rain = 0
KBO1 101954Z 22006KT 13/M10 A3028 RMK A01 T01271099  RH  020%=      5-min Rain = 0
KBO1 101955Z 21006KT 13/M09 A3028 RMK A01 T01281092  RH  021%=      5-min Rain = 0
KBO1 101956Z 22007KT 13/M09 A3028 RMK A01 T01291093  RH  020%=      5-min Rain = 0
KBO1 101957Z 22006KT 13/M09 A3028 RMK A01 T01291091  RH  021%=      5-min Rain = 0
KBO1 101958Z 19005KT 13/M09 A3028 RMK A01 T01281089  RH  021%=      5-min Rain = 0
KBO1 101959Z 24006KT 13/M09 A3028 RMK A01 T01291087  RH  021%=      5-min Rain = 0
KBO1 102000Z 25005KT 13/M09 A3028 RMK A01 T01311088  RH  021%=      5-min Rain = 0
KBO1 102001Z 24004KT 13/M09 A3028 RMK A01 T01311090  RH  021%=      5-min Rain = 0
KBO1 102002Z 21007KT 13/M09 A3028 RMK A01 T01321089  RH  021%=      5-min Rain = 0
KBO1 102003Z 21006KT 13/M09 A3028 RMK A01 T01331094  RH  020%=      5-min Rain = 0
KBO1 102004Z 21006KT 13/M10 A3028 RMK A01 T01311097  RH  020%=      5-min Rain = 0
KBO1 102005Z 20006KT 13/M10 A3028 RMK A01 T01301097  RH  020%=      5-min Rain = 0
KBO1 102006Z 21008KT 13/M10 A3027 RMK A01 T01321095  RH  020%=      5-min Rain = 0
KBO1 102007Z 22008KT 13/M10 A3027 RMK A01 T01331097  RH  019%=      5-min Rain = 0
KBO1 102008Z 22006KT 13/M10 A3027 RMK A01 T01311100  RH  019%=      5-min Rain = 0
KBO1 102009Z 24004KT 13/M10 A3027 RMK A01 T01301098  RH  019%=      5-min Rain = 0
KBO1 102010Z 23003KT 13/M10 A3027 RMK A01 T01301096  RH  020%=      5-min Rain = 0
KBO1 102011Z 23008KT 13/M09 A3027 RMK A01 T01331093  RH  020%=      5-min Rain = 0
KBO1 102012Z 22011KT 13/M10 A3027 RMK A01 T01341099  RH  019%=      5-min Rain = 0
KBO1 102013Z 22010KT 13/M10 A3027 RMK A01 T01331101  RH  019%=      5-min Rain = 0
KBO1 102014Z 22008KT 13/M10 A3027 RMK A01 T01331104  RH  018%=      5-min Rain = 0
KBO1 102015Z 23006KT 13/M11 A3027 RMK A01 T01321107  RH  018%=      5-min Rain = 0
KBO1 102016Z 21006KT 13/M11 A3027 RMK A01 T01321106  RH  018%=      5-min Rain = 0
KBO1 102017Z 21007KT 13/M11 A3027 RMK A01 T01331106  RH  018%=      5-min Rain = 0
KBO1 102018Z 23005KT 13/M10 A3027 RMK A01 T01331104  RH  018%=      5-min Rain = 0
KBO1 102019Z 21005KT 13/M10 A3027 RMK A01 T01321102  RH  019%=      5-min Rain = 0
KBO1 102020Z 22006KT 13/M10 A3027 RMK A01 T01321103  RH  019%=      5-min Rain = 0
KBO1 102021Z 22010KT 13/M10 A3027 RMK A01 T01321103  RH  018%=      5-min Rain = 0
KBO1 102022Z 21010KT 13/M11 A3027 RMK A01 T01331107  RH  018%=      5-min Rain = 0
KBO1 102023Z 21008KT 13/M11 A3027 RMK A01 T01331108  RH  018%=      5-min Rain = 0
KBO1 102024Z 23007KT 13/M11 A3027 RMK A01 T01321109  RH  018%=      5-min Rain = 0
KBO1 102025Z 25006KT 13/M11 A3027 RMK A01 T01321110  RH  018%=      5-min Rain = 0
KBO1 102026Z 23007KT 13/M11 A3027 RMK A01 T01321112  RH  017%=      5-min Rain = 0
KBO1 102027Z 23007KT 13/M11 A3027 RMK A01 T01331108  RH  018%=      5-min Rain = 0
KBO1 102028Z 26008KT 14/M11 A3027 RMK A01 T01351111  RH  017%=      5-min Rain = 0
KBO1 102029Z 26008KT 14/M12 A3027 RMK A01 T01351117  RH  016%=      5-min Rain = 0
KBO1 102030Z 26007KT 13/M12 A3027 RMK A01 T01341119  RH  016%=      5-min Rain = 0
KBO1 102031Z 27006KT 14/M13 A3027 RMK A01 T01351127  RH  015%=      5-min Rain = 0
KBO1 102032Z 26006KT 14/M12 A3027 RMK A01 T01351123  RH  015%=      5-min Rain = 0
KBO1 102033Z 23005KT 13/M11 A3027 RMK A01 T01341113  RH  017%=      5-min Rain = 0
KBO1 102034Z 23004KT 13/M11 A3027 RMK A01 T01331108  RH  018%=      5-min Rain = 0
KBO1 102035Z 25004KT 13/M10 A3026 RMK A01 T01341104  RH  018%=      5-min Rain = 0
KBO1 102036Z 22008KT 14/M10 A3026 RMK A01 T01371100  RH  018%=      5-min Rain = 0
KBO1 102037Z 23008KT 14/M10 A3026 RMK A01 T01391097  RH  018%=      5-min Rain = 0
KBO1 102038Z 23008KT 14/M10 A3026 RMK A01 T01371100  RH  018%=      5-min Rain = 0
KBO1 102039Z 23008KT 14/M10 A3026 RMK A01 T01361102  RH  018%=      5-min Rain = 0
KBO1 102040Z 25009KT 14/M11 A3026 RMK A01 T01361107  RH  017%=      5-min Rain = 0
KBO1 102041Z 25010KT 14/M12 A3026 RMK A01 T01351115  RH  016%=      5-min Rain = 0
KBO1 102042Z 25009KT 14/M12 A3026 RMK A01 T01361117  RH  016%=      5-min Rain = 0
KBO1 102043Z 25006KT 14/M12 A3026 RMK A01 T01361115  RH  016%=      5-min Rain = 0
KBO1 102044Z 25006KT 14/M12 A3026 RMK A01 T01351116  RH  016%=      5-min Rain = 0
KBO1 102045Z 27007KT 13/M12 A3026 RMK A01 T01341116  RH  016%=      5-min Rain = 0
KBO1 102046Z 26007KT 13/M11 A3026 RMK A01 T01341113  RH  017%=      5-min Rain = 0
KBO1 102047Z 26007KT 13/M11 A3026 RMK A01 T01341107  RH  018%=      5-min Rain = 0
KBO1 102048Z 26005KT 14/M11 A3026 RMK A01 T01351105  RH  018%=      5-min Rain = 0
KBO1 102049Z 22007KT 13/M10 A3026 RMK A01 T01341104  RH  018%=      5-min Rain = 0
KBO1 102050Z 20009KT 14/M11 A3026 RMK A01 T01361107  RH  017%=      5-min Rain = 0
KBO1 102051Z 22010KT 14/M11 A3026 RMK A01 T01361109  RH  017%=      5-min Rain = 0
KBO1 102052Z 22009KT 14/M11 A3026 RMK A01 T01361111  RH  017%=      5-min Rain = 0
KBO1 102053Z 21010KT 14/M11 A3026 RMK A01 T01361113  RH  017%=      5-min Rain = 0
KBO1 102054Z 22009KT 14/M11 A3026 RMK A01 T01361111  RH  017%=      5-min Rain = 0
KBO1 102055Z 23009KT 14/M11 A3026 RMK A01 T01391109  RH  017%=      5-min Rain = 0
KBO1 102056Z 22009KT 14/M12 A3026 RMK A01 T01361115  RH  016%=      5-min Rain = 0
KBO1 102057Z 22010KT 13/M11 A3026 RMK A01 T01341114  RH  017%=      5-min Rain = 0
KBO1 102058Z 23010KT 13/M12 A3026 RMK A01 T01341116  RH  016%=      5-min Rain = 0
KBO1 102059Z 24010KT 14/M11 A3026 RMK A01 T01351114  RH  017%=      5-min Rain = 0
KBO1 102100Z 23006KT 14/M12 A3026 RMK A01 T01351118  RH  016%=      5-min Rain = 0
KBO1 102101Z 22006KT 13/M12 A3026 RMK A01 T01341119  RH  016%=      5-min Rain = 0
KBO1 102102Z 21007KT 13/M12 A3026 RMK A01 T01331119  RH  016%=      5-min Rain = 0
KBO1 102103Z 22008KT 13/M12 A3026 RMK A01 T01331118  RH  016%=      5-min Rain = 0
KBO1 102104Z 23010KT 13/M11 A3026 RMK A01 T01341114  RH  017%=      5-min Rain = 0
KBO1 102105Z 22010KT 14/M12 A3026 RMK A01 T01361115  RH  016%=      5-min Rain = 0
KBO1 102106Z 22010KT 14/M12 A3026 RMK A01 T01351116  RH  016%=      5-min Rain = 0
KBO1 102107Z 22010KT 14/M12 A3026 RMK A01 T01351117  RH  016%=      5-min Rain = 0
KBO1 102108Z 22008KT 13/M12 A3026 RMK A01 T01341117  RH  016%=      5-min Rain = 0
KBO1 102109Z 22006KT 13/M12 A3026 RMK A01 T01341117  RH  016%=      5-min Rain = 0
KBO1 102110Z 23006KT 13/M12 A3026 RMK A01 T01331119  RH  016%=      5-min Rain = 0
KBO1 102111Z 22011KT 13/M12 A3026 RMK A01 T01331117  RH  016%=      5-min Rain = 0
KBO1 102112Z 21009KT 13/M11 A3026 RMK A01 T01331113  RH  017%=      5-min Rain = 0
KBO1 102113Z 22011KT 13/M11 A3026 RMK A01 T01321112  RH  017%=      5-min Rain = 0
KBO1 102114Z 23010KT 13/M11 A3026 RMK A01 T01321112  RH  017%=      5-min Rain = 0
KBO1 102115Z 21009KT 13/M11 A3026 RMK A01 T01331111  RH  017%=      5-min Rain = 0
KBO1 102116Z 23008KT 13/M11 A3026 RMK A01 T01331112  RH  017%=      5-min Rain = 0
KBO1 102117Z 24010KT 13/M11 A3026 RMK A01 T01341110  RH  017%=      5-min Rain = 0
KBO1 102118Z 24010KT 13/M11 A3025 RMK A01 T01331112  RH  017%=      5-min Rain = 0
KBO1 102119Z 22011KT 13/M11 A3025 RMK A01 T01321113  RH  017%=      5-min Rain = 0
KBO1 102120Z 22010KT 13/M11 A3025 RMK A01 T01321114  RH  017%=      5-min Rain = 0
KBO1 102121Z 22009KT 13/M12 A3026 RMK A01 T01311116  RH  017%=      5-min Rain = 0
KBO1 102122Z 23007KT 13/M12 A3025 RMK A01 T01301117  RH  017%=      5-min Rain = 0
KBO1 102123Z 21011KT 13/M12 A3025 RMK A01 T01311115  RH  017%=      5-min Rain = 0
KBO1 102124Z 21012KT 13/M11 A3025 RMK A01 T01311113  RH  017%=      5-min Rain = 0
KBO1 102125Z 21011KT 13/M11 A3025 RMK A01 T01311113  RH  017%=      5-min Rain = 0
KBO1 102126Z 22009KT 13/M11 A3025 RMK A01 T01301114  RH  017%=      5-min Rain = 0
KBO1 102127Z 23008KT 13/M11 A3025 RMK A01 T01311112  RH  017%=      5-min Rain = 0
KBO1 102128Z 22008KT 13/M11 A3025 RMK A01 T01311114  RH  017%=      5-min Rain = 0
KBO1 102129Z 22009KT 13/M11 A3025 RMK A01 T01311113  RH  017%=      5-min Rain = 0
KBO1 102130Z 20010KT 13/M11 A3025 RMK A01 T01321113  RH  017%=      5-min Rain = 0
KBO1 102131Z 20008KT 13/M11 A3025 RMK A01 T01321114  RH  017%=      5-min Rain = 0
KBO1 102132Z 20009KT 13/M11 A3025 RMK A01 T01311112  RH  017%=      5-min Rain = 0
KBO1 102133Z 21008KT 13/M11 A3025 RMK A01 T01311112  RH  017%=      5-min Rain = 0
KBO1 102134Z 20007KT 13/M11 A3025 RMK A01 T01301113  RH  017%=      5-min Rain = 0
KBO1 102135Z 21010KT 13/M11 A3025 RMK A01 T01301111  RH  018%=      5-min Rain = 0
KBO1 102136Z 21009KT 13/M11 A3025 RMK A01 T01291110  RH  018%=      5-min Rain = 0
KBO1 102137Z 21011KT 13/M11 A3025 RMK A01 T01301109  RH  018%=      5-min Rain = 0
KBO1 102138Z 22009KT 13/M11 A3025 RMK A01 T01291109  RH  018%=      5-min Rain = 0
KBO1 102139Z 22008KT 13/M11 A3025 RMK A01 T01301106  RH  018%=      5-min Rain = 0
KBO1 102140Z 21007KT 13/M11 A3025 RMK A01 T01301108  RH  018%=      5-min Rain = 0
KBO1 102141Z 20007KT 13/M11 A3025 RMK A01 T01291110  RH  018%=      5-min Rain = 0
KBO1 102142Z 22008KT 13/M11 A3025 RMK A01 T01281106  RH  018%=      5-min Rain = 0
KBO1 102143Z 23010KT 13/M11 A3025 RMK A01 T01281105  RH  019%=      5-min Rain = 0
KBO1 102144Z 23009KT 13/M11 A3025 RMK A01 T01271107  RH  018%=      5-min Rain = 0
KBO1 102145Z 22011KT 13/M11 A3025 RMK A01 T01261108  RH  018%=      5-min Rain = 0
KBO1 102146Z 22010KT 13/M11 A3025 RMK A01 T01261107  RH  019%=      5-min Rain = 0
KBO1 102147Z 22010KT 13/M11 A3025 RMK A01 T01251107  RH  019%=      5-min Rain = 0
KBO1 102148Z 22010KT 12/M11 A3025 RMK A01 T01241109  RH  019%=      5-min Rain = 0
KBO1 102149Z 22009KT 12/M11 A3025 RMK A01 T01241111  RH  018%=      5-min Rain = 0
KBO1 102150Z 23009KT 12/M11 A3025 RMK A01 T01241109  RH  019%=      5-min Rain = 0
KBO1 102151Z 22007KT 13/M11 A3025 RMK A01 T01251108  RH  019%=      5-min Rain = 0
KBO1 102152Z 22008KT 13/M11 A3025 RMK A01 T01251106  RH  019%=      5-min Rain = 0
KBO1 102153Z 22009KT 13/M10 A3025 RMK A01 T01271104  RH  019%=      5-min Rain = 0
KBO1 102154Z 23009KT 13/M11 A3025 RMK A01 T01271105  RH  019%=      5-min Rain = 0
KBO1 102155Z 22009KT 13/M11 A3025 RMK A01 T01251106  RH  019%=      5-min Rain = 0
KBO1 102156Z 21008KT 12/M11 A3025 RMK A01 T01241106  RH  019%=      5-min Rain = 0
KBO1 102157Z 22008KT 12/M11 A3025 RMK A01 T01221108  RH  019%=      5-min Rain = 0
KBO1 102158Z 21007KT 12/M11 A3025 RMK A01 T01211108  RH  019%=      5-min Rain = 0
KBO1 102159Z 20007KT 12/M11 A3025 RMK A01 T01201108  RH  019%=      5-min Rain = 0
KBO1 102200Z 21007KT 12/M11 A3025 RMK A01 T01191108  RH  019%=      5-min Rain = 0
KBO1 102201Z 22008KT 12/M11 A3025 RMK A01 T01181108  RH  019%=      5-min Rain = 0
KBO1 102202Z 21008KT 12/M11 A3025 RMK A01 T01171107  RH  020%=      5-min Rain = 0
KBO1 102203Z 21008KT 12/M11 A3025 RMK A01 T01161106  RH  020%=      5-min Rain = 0
KBO1 102204Z 21007KT 12/M11 A3026 RMK A01 T01151105  RH  020%=      5-min Rain = 0
KBO1 102205Z 20007KT 12/M10 A3026 RMK A01 T01151104  RH  020%=      5-min Rain = 0
KBO1 102206Z 20008KT 12/M11 A3026 RMK A01 T01151105  RH  020%=      5-min Rain = 0
KBO1 102207Z 20008KT 12/M10 A3026 RMK A01 T01151104  RH  020%=      5-min Rain = 0
KBO1 102208Z 21006KT 12/M10 A3026 RMK A01 T01151104  RH  020%=      5-min Rain = 0
KBO1 102209Z 21006KT 12/M10 A3026 RMK A01 T01151103  RH  021%=      5-min Rain = 0
KBO1 102210Z 22007KT 12/M10 A3026 RMK A01 T01151104  RH  021%=      5-min Rain = 0
KBO1 102211Z 22006KT 11/M11 A3026 RMK A01 T01141105  RH  020%=      5-min Rain = 0
KBO1 102212Z 22006KT 11/M11 A3026 RMK A01 T01131105  RH  021%=      5-min Rain = 0
KBO1 102213Z 22007KT 11/M11 A3026 RMK A01 T01121106  RH  021%=      5-min Rain = 0
KBO1 102214Z 22007KT 11/M11 A3026 RMK A01 T01121105  RH  021%=      5-min Rain = 0
KBO1 102215Z 22007KT 11/M10 A3026 RMK A01 T01111104  RH  021%=      5-min Rain = 0
KBO1 102216Z 22006KT 11/M10 A3026 RMK A01 T01111102  RH  021%=      5-min Rain = 0
KBO1 102217Z 22006KT 11/M10 A3026 RMK A01 T01111101  RH  022%=      5-min Rain = 0
KBO1 102218Z 22006KT 11/M10 A3026 RMK A01 T01101100  RH  022%=      5-min Rain = 0
KBO1 102219Z 22007KT 11/M10 A3026 RMK A01 T01101100  RH  022%=      5-min Rain = 0
KBO1 102220Z 22006KT 11/M10 A3026 RMK A01 T01101101  RH  022%=      5-min Rain = 0
KBO1 102221Z 22007KT 11/M10 A3026 RMK A01 T01091102  RH  022%=      5-min Rain = 0
KBO1 102222Z 22007KT 11/M10 A3026 RMK A01 T01091103  RH  021%=      5-min Rain = 0
KBO1 102223Z 22007KT 11/M10 A3026 RMK A01 T01081104  RH  021%=      5-min Rain = 0
KBO1 102224Z 21006KT 11/M10 A3026 RMK A01 T01081103  RH  022%=      5-min Rain = 0
KBO1 102225Z 21006KT 11/M10 A3026 RMK A01 T01081102  RH  022%=      5-min Rain = 0
KBO1 102226Z 21006KT 11/M10 A3026 RMK A01 T01071102  RH  022%=      5-min Rain = 0
KBO1 102227Z 21005KT 11/M10 A3026 RMK A01 T01061102  RH  022%=      5-min Rain = 0
KBO1 102228Z 21006KT 11/M10 A3026 RMK A01 T01051102  RH  022%=      5-min Rain = 0
KBO1 102229Z 20006KT 10/M10 A3026 RMK A01 T01041102  RH  022%=      5-min Rain = 0
KBO1 102230Z 21006KT 10/M10 A3026 RMK A01 T01031103  RH  022%=      5-min Rain = 0
KBO1 102231Z 21006KT 10/M10 A3026 RMK A01 T01031103  RH  022%=      5-min Rain = 0
KBO1 102232Z 21006KT 10/M10 A3026 RMK A01 T01021103  RH  022%=      5-min Rain = 0
KBO1 102233Z 21006KT 10/M10 A3026 RMK A01 T01011103  RH  023%=      5-min Rain = 0
KBO1 102234Z 21005KT 10/M10 A3026 RMK A01 T01001103  RH  023%=      5-min Rain = 0
KBO1 102235Z 21006KT 10/M10 A3026 RMK A01 T00991103  RH  023%=      5-min Rain = 0
KBO1 102236Z 21006KT 10/M10 A3026 RMK A01 T00971103  RH  023%=      5-min Rain = 0
KBO1 102237Z 21006KT 10/M10 A3026 RMK A01 T00961104  RH  023%=      5-min Rain = 0
KBO1 102238Z 21006KT 10/M10 A3026 RMK A01 T00951103  RH  024%=      5-min Rain = 0
KBO1 102239Z 21006KT 09/M10 A3026 RMK A01 T00941103  RH  024%=      5-min Rain = 0
KBO1 102240Z 21006KT 09/M10 A3026 RMK A01 T00921104  RH  024%=      5-min Rain = 0
KBO1 102241Z 20005KT 09/M10 A3026 RMK A01 T00911104  RH  024%=      5-min Rain = 0
KBO1 102242Z 20005KT 09/M11 A3026 RMK A01 T00901105  RH  024%=      5-min Rain = 0
KBO1 102243Z 20006KT 09/M11 A3026 RMK A01 T00891105  RH  024%=      5-min Rain = 0
KBO1 102244Z 20006KT 09/M10 A3026 RMK A01 T00891104  RH  024%=      5-min Rain = 0
KBO1 102245Z 20006KT 09/M11 A3026 RMK A01 T00871105  RH  024%=      5-min Rain = 0
KBO1 102246Z 20006KT 09/M11 A3026 RMK A01 T00861105  RH  025%=      5-min Rain = 0
KBO1 102247Z 21006KT 09/M11 A3026 RMK A01 T00851105  RH  025%=      5-min Rain = 0
KBO1 102248Z 20006KT 08/M11 A3026 RMK A01 T00831105  RH  025%=      5-min Rain = 0
KBO1 102249Z 20007KT 08/M11 A3026 RMK A01 T00821105  RH  025%=      5-min Rain = 0
KBO1 102250Z 21007KT 08/M11 A3026 RMK A01 T00811105  RH  026%=      5-min Rain = 0
KBO1 102251Z 21007KT 08/M11 A3026 RMK A01 T00801105  RH  026%=      5-min Rain = 0
KBO1 102252Z 21006KT 08/M11 A3026 RMK A01 T00781105  RH  026%=      5-min Rain = 0
KBO1 102253Z 20006KT 08/M11 A3026 RMK A01 T00781105  RH  026%=      5-min Rain = 0
KBO1 102254Z 20006KT 08/M11 A3026 RMK A01 T00771105  RH  026%=      5-min Rain = 0
KBO1 102255Z 20007KT 08/M11 A3026 RMK A01 T00761105  RH  026%=      5-min Rain = 0
KBO1 102256Z 20007KT 08/M11 A3026 RMK A01 T00751106  RH  026%=      5-min Rain = 0
KBO1 102257Z 20007KT 07/M11 A3026 RMK A01 T00741106  RH  027%=      5-min Rain = 0
KBO1 102258Z 20007KT 07/M11 A3026 RMK A01 T00731106  RH  027%=      5-min Rain = 0
KBO1 102259Z 20007KT 07/M11 A3026 RMK A01 T00721106  RH  027%=      5-min Rain = 0
KBO1 102300Z 20007KT 07/M11 A3026 RMK A01 T00721106  RH  027%=      5-min Rain = 0
KBO1 102301Z 20007KT 07/M11 A3026 RMK A01 T00721106  RH  027%=      5-min Rain = 0
KBO1 102302Z 21007KT 07/M11 A3026 RMK A01 T00711106  RH  027%=      5-min Rain = 0
KBO1 102303Z 21007KT 07/M11 A3026 RMK A01 T00701106  RH  027%=      5-min Rain = 0
KBO1 102304Z 21007KT 07/M11 A3026 RMK A01 T00701106  RH  027%=      5-min Rain = 0
KBO1 102305Z 21007KT 07/M11 A3026 RMK A01 T00691106  RH  027%=      5-min Rain = 0
KBO1 102306Z 21006KT 07/M11 A3026 RMK A01 T00691106  RH  028%=      5-min Rain = 0
KBO1 102307Z 21006KT 07/M11 A3026 RMK A01 T00681106  RH  028%=      5-min Rain = 0
KBO1 102308Z 21006KT 07/M11 A3026 RMK A01 T00661107  RH  028%=      5-min Rain = 0
KBO1 102309Z 21006KT 07/M11 A3026 RMK A01 T00651107  RH  028%=      5-min Rain = 0
KBO1 102310Z 21006KT 07/M11 A3026 RMK A01 T00651107  RH  028%=      5-min Rain = 0
KBO1 102311Z 21006KT 06/M11 A3026 RMK A01 T00631107  RH  028%=      5-min Rain = 0
KBO1 102312Z 21006KT 06/M11 A3026 RMK A01 T00621107  RH  029%=      5-min Rain = 0
KBO1 102313Z 21006KT 06/M11 A3026 RMK A01 T00611107  RH  029%=      5-min Rain = 0
KBO1 102314Z 21006KT 06/M11 A3026 RMK A01 T00601107  RH  029%=      5-min Rain = 0
KBO1 102315Z 21006KT 06/M11 A3026 RMK A01 T00591107  RH  029%=      5-min Rain = 0
KBO1 102316Z 21006KT 06/M11 A3026 RMK A01 T00581108  RH  029%=      5-min Rain = 0
KBO1 102317Z 21006KT 06/M11 A3026 RMK A01 T00571107  RH  030%=      5-min Rain = 0
KBO1 102318Z 21006KT 06/M11 A3026 RMK A01 T00561108  RH  030%=      5-min Rain = 0
KBO1 102319Z 21006KT 05/M11 A3026 RMK A01 T00541108  RH  030%=      5-min Rain = 0
KBO1 102320Z 21007KT 05/M11 A3026 RMK A01 T00531108  RH  030%=      5-min Rain = 0
KBO1 102321Z 21006KT 05/M11 A3026 RMK A01 T00511108  RH  031%=      5-min Rain = 0
KBO1 102322Z 21006KT 05/M11 A3026 RMK A01 T00501108  RH  031%=      5-min Rain = 0
KBO1 102323Z 21006KT 05/M11 A3026 RMK A01 T00491108  RH  031%=      5-min Rain = 0
KBO1 102324Z 21006KT 05/M11 A3025 RMK A01 T00481108  RH  031%=      5-min Rain = 0
KBO1 102325Z 21006KT 05/M11 A3025 RMK A01 T00471108  RH  032%=      5-min Rain = 0
KBO1 102326Z 21006KT 05/M11 A3025 RMK A01 T00461108  RH  032%=      5-min Rain = 0
KBO1 102327Z 21006KT 05/M11 A3025 RMK A01 T00461108  RH  032%=      5-min Rain = 0
KBO1 102328Z 21006KT 05/M11 A3025 RMK A01 T00461107  RH  032%=      5-min Rain = 0
KBO1 102329Z 21007KT 05/M11 A3025 RMK A01 T00461108  RH  032%=      5-min Rain = 0
KBO1 102330Z 21007KT 05/M11 A3025 RMK A01 T00461108  RH  032%=      5-min Rain = 0
KBO1 102331Z 21007KT 05/M11 A3025 RMK A01 T00461107  RH  032%=      5-min Rain = 0
KBO1 102332Z 21007KT 05/M11 A3025 RMK A01 T00451108  RH  032%=      5-min Rain = 0
KBO1 102333Z 21007KT 04/M11 A3025 RMK A01 T00431108  RH  033%=      5-min Rain = 0
KBO1 102334Z 21007KT 04/M11 A3025 RMK A01 T00411108  RH  033%=      5-min Rain = 0
KBO1 102335Z 21007KT 04/M11 A3025 RMK A01 T00391108  RH  033%=      5-min Rain = 0
KBO1 102336Z 21007KT 04/M11 A3025 RMK A01 T00391107  RH  034%=      5-min Rain = 0
KBO1 102337Z 21007KT 04/M11 A3025 RMK A01 T00371107  RH  034%=      5-min Rain = 0
KBO1 102338Z 21007KT 04/M11 A3025 RMK A01 T00351107  RH  034%=      5-min Rain = 0
KBO1 102339Z 21007KT 03/M11 A3025 RMK A01 T00331107  RH  035%=      5-min Rain = 0
KBO1 102340Z 21006KT 03/M11 A3025 RMK A01 T00311107  RH  036%=      5-min Rain = 0
KBO1 102341Z 21006KT 03/M11 A3025 RMK A01 T00301107  RH  036%=      5-min Rain = 0
KBO1 102342Z 21006KT 03/M11 A3025 RMK A01 T00291107  RH  036%=      5-min Rain = 0
KBO1 102343Z 21006KT 03/M11 A3025 RMK A01 T00291106  RH  036%=      5-min Rain = 0
KBO1 102344Z 21006KT 03/M11 A3025 RMK A01 T00291106  RH  036%=      5-min Rain = 0
KBO1 102345Z 21007KT 03/M11 A3025 RMK A01 T00281107  RH  036%=      5-min Rain = 0
KBO1 102346Z 21007KT 03/M11 A3025 RMK A01 T00281106  RH  036%=      5-min Rain = 0
KBO1 102347Z 21007KT 03/M11 A3025 RMK A01 T00281106  RH  036%=      5-min Rain = 0
KBO1 102348Z 21007KT 03/M11 A3025 RMK A01 T00281106  RH  037%=      5-min Rain = 0
KBO1 102349Z 21006KT 03/M11 A3025 RMK A01 T00261107  RH  037%=      5-min Rain = 0
KBO1 102350Z 21006KT 03/M11 A3025 RMK A01 T00261107  RH  037%=      5-min Rain = 0
KBO1 102351Z 21007KT 03/M11 A3025 RMK A01 T00251106  RH  037%=      5-min Rain = 0
KBO1 102352Z 21007KT 02/M11 A3025 RMK A01 T00241107  RH  037%=      5-min Rain = 0
KBO1 102353Z 21007KT 02/M11 A3025 RMK A01 T00231107  RH  038%=      5-min Rain = 0
KBO1 102354Z 21007KT 02/M11 A3025 RMK A01 T00231107  RH  038%=      5-min Rain = 0
KBO1 102355Z 21007KT 02/M11 A3025 RMK A01 T00221107  RH  038%=      5-min Rain = 0
KBO1 102356Z 21008KT 02/M11 A3025 RMK A01 T00211107  RH  038%=      5-min Rain = 0
KBO1 102357Z 21008KT 02/M11 A3025 RMK A01 T00211106  RH  038%=      5-min Rain = 0
KBO1 102358Z 21008KT 02/M11 A3025 RMK A01 T00211106  RH  039%=      5-min Rain = 0
KBO1 102359Z 21008KT 02/M11 A3025 RMK A01 T00201106  RH  039%=      5-min Rain = 0
KBO1 110000Z 21008KT 02/M11 A3025 RMK A01 T00191105  RH  039%=      5-min Rain = 0
KBO1 110001Z 21008KT 02/M11 A3025 RMK A01 T00171106  RH  040%=      5-min Rain = 0
KBO1 110002Z 22009KT 02/M11 A3025 RMK A01 T00151106  RH  040%=      5-min Rain = 0
KBO1 110003Z 22009KT 01/M11 A3025 RMK A01 T00121106  RH  041%=      5-min Rain = 0
KBO1 110004Z 22009KT 01/M11 A3025 RMK A01 T00101106  RH  042%=      5-min Rain = 0
KBO1 110005Z 22008KT 01/M11 A3025 RMK A01 T00071106  RH  043%=      5-min Rain = 0
KBO1 110006Z 22008KT 01/M11 A3025 RMK A01 T00051105  RH  043%=      5-min Rain = 0
KBO1 110007Z 22008KT 00/M11 A3025 RMK A01 T00021106  RH  044%=      5-min Rain = 0
KBO1 110008Z 22008KT 00/11 A3025 RMK A01 T00000-106  RH  045%=      5-min Rain = 0
KBO1 110009Z 22008KT M00/M11 A3025 RMK A01 T10021106  RH  045%=      5-min Rain = 0
KBO1 110010Z 22008KT M00/M11 A3025 RMK A01 T10041106  RH  046%=      5-min Rain = 0
KBO1 110011Z 22008KT M00/M11 A3025 RMK A01 T10041106  RH  046%=      5-min Rain = 0
KBO1 110012Z 22008KT M01/M11 A3025 RMK A01 T10051105  RH  047%=      5-min Rain = 0
KBO1 110013Z 22008KT M01/M11 A3025 RMK A01 T10051105  RH  047%=      5-min Rain = 0
KBO1 110014Z 22008KT M01/M11 A3025 RMK A01 T10051105  RH  047%=      5-min Rain = 0
KBO1 110015Z 22009KT M01/M11 A3025 RMK A01 T10061105  RH  047%=      5-min Rain = 0
KBO1 110016Z 22009KT M01/M11 A3025 RMK A01 T10061105  RH  047%=      5-min Rain = 0
KBO1 110017Z 22009KT M01/M10 A3025 RMK A01 T10071104  RH  048%=      5-min Rain = 0
KBO1 110018Z 22009KT M01/M10 A3025 RMK A01 T10071103  RH  048%=      5-min Rain = 0
KBO1 110019Z 22009KT M01/M10 A3025 RMK A01 T10071102  RH  049%=      5-min Rain = 0
KBO1 110020Z 22009KT M01/M10 A3025 RMK A01 T10081102  RH  049%=      5-min Rain = 0
KBO1 110021Z 22009KT M01/M10 A3025 RMK A01 T10081102  RH  049%=      5-min Rain = 0
KBO1 110022Z 22009KT M01/M10 A3025 RMK A01 T10081101  RH  049%=      5-min Rain = 0
KBO1 110023Z 22009KT M01/M10 A3025 RMK A01 T10081100  RH  049%=      5-min Rain = 0
KBO1 110024Z 22010KT M01/M10 A3025 RMK A01 T10071100  RH  049%=      5-min Rain = 0
KBO1 110025Z 23010KT M01/M10 A3025 RMK A01 T10051098  RH  049%=      5-min Rain = 0
KBO1 110026Z 22010KT M00/M10 A3025 RMK A01 T10031097  RH  049%=      5-min Rain = 0
KBO1 110027Z 23011KT M00/M10 A3026 RMK A01 T10021097  RH  049%=      5-min Rain = 0
KBO1 110028Z 23011KT M00/M10 A3026 RMK A01 T10021097  RH  049%=      5-min Rain = 0
KBO1 110029Z 23011KT M00/M10 A3026 RMK A01 T10021096  RH  049%=      5-min Rain = 0
KBO1 110030Z 23012KT M00/M10 A3026 RMK A01 T10021096  RH  049%=      5-min Rain = 0
KBO1 110031Z 23012KT M00/M10 A3026 RMK A01 T10021096  RH  049%=      5-min Rain = 0
KBO1 110032Z 23012KT M00/M10 A3026 RMK A01 T10031096  RH  050%=      5-min Rain = 0
KBO1 110033Z 23011KT M00/M10 A3026 RMK A01 T10031095  RH  050%=      5-min Rain = 0
KBO1 110034Z 23011KT M00/M09 A3026 RMK A01 T10031094  RH  050%=      5-min Rain = 0
KBO1 110035Z 23010KT M00/M09 A3025 RMK A01 T10031093  RH  050%=      5-min Rain = 0
KBO1 110036Z 23010KT M00/M09 A3025 RMK A01 T10031094  RH  050%=      5-min Rain = 0
KBO1 110037Z 23010KT M00/M09 A3025 RMK A01 T10031094  RH  050%=      5-min Rain = 0
KBO1 110038Z 23010KT M00/M09 A3025 RMK A01 T10031094  RH  050%=      5-min Rain = 0
KBO1 110039Z 23010KT M00/M09 A3025 RMK A01 T10031094  RH  050%=      5-min Rain = 0
KBO1 110040Z 23010KT M00/M09 A3025 RMK A01 T10031094  RH  050%=      5-min Rain = 0
KBO1 110041Z 23010KT M00/M09 A3025 RMK A01 T10041094  RH  051%=      5-min Rain = 0
KBO1 110042Z 23010KT M01/M09 A3025 RMK A01 T10051094  RH  051%=      5-min Rain = 0
KBO1 110043Z 23011KT M01/M09 A3025 RMK A01 T10051094  RH  051%=      5-min Rain = 0
KBO1 110044Z 23011KT M01/M09 A3025 RMK A01 T10051093  RH  051%=      5-min Rain = 0
KBO1 110045Z 23011KT M01/M09 A3025 RMK A01 T10051093  RH  051%=      5-min Rain = 0
KBO1 110046Z 23011KT M01/M09 A3025 RMK A01 T10051093  RH  051%=      5-min Rain = 0
KBO1 110047Z 23011KT M01/M09 A3025 RMK A01 T10051092  RH  052%=      5-min Rain = 0
KBO1 110048Z 23011KT M01/M09 A3025 RMK A01 T10051092  RH  052%=      5-min Rain = 0
KBO1 110049Z 23011KT M01/M09 A3025 RMK A01 T10051091  RH  052%=      5-min Rain = 0
KBO1 110050Z 23011KT M01/M09 A3025 RMK A01 T10051090  RH  052%=      5-min Rain = 0
KBO1 110051Z 23011KT M00/M09 A3025 RMK A01 T10041090  RH  052%=      5-min Rain = 0
KBO1 110052Z 22011KT M00/M09 A3025 RMK A01 T10041090  RH  052%=      5-min Rain = 0
KBO1 110053Z 23011KT M01/M09 A3025 RMK A01 T10051090  RH  053%=      5-min Rain = 0
KBO1 110054Z 23011KT M01/M09 A3025 RMK A01 T10051089  RH  053%=      5-min Rain = 0
KBO1 110055Z 22011KT M00/M09 A3025 RMK A01 T10041089  RH  053%=      5-min Rain = 0
KBO1 110056Z 23011KT M00/M09 A3025 RMK A01 T10041088  RH  053%=      5-min Rain = 0
KBO1 110057Z 22011KT M00/M09 A3025 RMK A01 T10041088  RH  053%=      5-min Rain = 0
KBO1 110058Z 23011KT M01/M09 A3025 RMK A01 T10051088  RH  053%=      5-min Rain = 0
KBO1 110059Z 22011KT M01/M09 A3025 RMK A01 T10051088  RH  053%=      5-min Rain = 0
KBO1 110100Z 22011KT M01/M09 A3026 RMK A01 T10051088  RH  053%=      5-min Rain = 0
KBO1 110101Z 22011KT M00/M09 A3026 RMK A01 T10041087  RH  053%=      5-min Rain = 0
KBO1 110102Z 22011KT M01/M09 A3026 RMK A01 T10051088  RH  053%=      5-min Rain = 0
KBO1 110103Z 22011KT M01/M09 A3026 RMK A01 T10051088  RH  054%=      5-min Rain = 0
KBO1 110104Z 22011KT M01/M09 A3026 RMK A01 T10051087  RH  054%=      5-min Rain = 0
KBO1 110105Z 23011KT M01/M09 A3026 RMK A01 T10051087  RH  054%=      5-min Rain = 0
KBO1 110106Z 23011KT M00/M09 A3026 RMK A01 T10041087  RH  053%=      5-min Rain = 0
KBO1 110107Z 23011KT M00/M09 A3026 RMK A01 T10041087  RH  053%=      5-min Rain = 0
KBO1 110108Z 23011KT M00/M09 A3026 RMK A01 T10031087  RH  053%=      5-min Rain = 0
KBO1 110109Z 22011KT M00/M09 A3026 RMK A01 T10031087  RH  053%=      5-min Rain = 0
KBO1 110110Z 22012KT M00/M09 A3026 RMK A01 T10031087  RH  053%=      5-min Rain = 0
KBO1 110111Z 22012KT M00/M09 A3026 RMK A01 T10031087  RH  053%=      5-min Rain = 0
KBO1 110112Z 22012KT M00/M09 A3026 RMK A01 T10031087  RH  053%=      5-min Rain = 0
KBO1 110113Z 22012KT M00/M09 A3026 RMK A01 T10031087  RH  053%=      5-min Rain = 0
KBO1 110114Z 22011KT M00/M09 A3026 RMK A01 T10031088  RH  053%=      5-min Rain = 0
KBO1 110115Z 23012KT M00/M09 A3026 RMK A01 T10031088  RH  053%=      5-min Rain = 0
KBO1 110116Z 23012KT M01/M09 A3026 RMK A01 T10051089  RH  053%=      5-min Rain = 0
KBO1 110117Z 23012KT M01/M09 A3026 RMK A01 T10061089  RH  053%=      5-min Rain = 0
KBO1 110118Z 22011KT M01/M09 A3026 RMK A01 T10081090  RH  054%=      5-min Rain = 0
KBO1 110119Z 22011KT M01/M09 A3026 RMK A01 T10091090  RH  054%=      5-min Rain = 0
KBO1 110120Z 22011KT M01/M09 A3026 RMK A01 T10091090  RH  054%=      5-min Rain = 0
KBO1 110121Z 22011KT M01/M09 A3026 RMK A01 T10091090  RH  054%=      5-min Rain = 0
KBO1 110122Z 22011KT M01/M09 A3026 RMK A01 T10101090  RH  054%=      5-min Rain = 0
KBO1 110123Z 22011KT M01/M09 A3026 RMK A01 T10111091  RH  054%=      5-min Rain = 0
KBO1 110124Z 23010KT M01/M09 A3026 RMK A01 T10121091  RH  055%=      5-min Rain = 0
KBO1 110125Z 22010KT M01/M09 A3026 RMK A01 T10131092  RH  055%=      5-min Rain = 0
KBO1 110126Z 22011KT M01/M09 A3026 RMK A01 T10141092  RH  055%=      5-min Rain = 0
KBO1 110127Z 22011KT M02/M09 A3026 RMK A01 T10151092  RH  055%=      5-min Rain = 0
KBO1 110128Z 22011KT M02/M09 A3026 RMK A01 T10161093  RH  056%=      5-min Rain = 0
KBO1 110129Z 22011KT M02/M09 A3026 RMK A01 T10161092  RH  056%=      5-min Rain = 0
KBO1 110130Z 22011KT M02/M09 A3026 RMK A01 T10161092  RH  056%=      5-min Rain = 0
KBO1 110131Z 22011KT M02/M09 A3026 RMK A01 T10161092  RH  056%=      5-min Rain = 0
KBO1 110132Z 22010KT M02/M09 A3026 RMK A01 T10151091  RH  056%=      5-min Rain = 0
KBO1 110133Z 22010KT M01/M09 A3026 RMK A01 T10141091  RH  056%=      5-min Rain = 0
KBO1 110134Z 22009KT M01/M09 A3026 RMK A01 T10141091  RH  056%=      5-min Rain = 0
KBO1 110135Z 22009KT M01/M09 A3026 RMK A01 T10131091  RH  056%=      5-min Rain = 0
KBO1 110136Z 22009KT M01/M09 A3026 RMK A01 T10141092  RH  055%=      5-min Rain = 0
KBO1 110137Z 22009KT M02/M09 A3026 RMK A01 T10151093  RH  056%=      5-min Rain = 0
KBO1 110138Z 22009KT M02/M09 A3026 RMK A01 T10171093  RH  056%=      5-min Rain = 0
KBO1 110139Z 22009KT M02/M09 A3026 RMK A01 T10181094  RH  056%=      5-min Rain = 0
KBO1 110140Z 22009KT M02/M09 A3026 RMK A01 T10201094  RH  057%=      5-min Rain = 0
KBO1 110141Z 22009KT M02/M10 A3026 RMK A01 T10221095  RH  057%=      5-min Rain = 0
KBO1 110142Z 22009KT M02/M10 A3026 RMK A01 T10231095  RH  058%=      5-min Rain = 0
KBO1 110143Z 22010KT M02/M10 A3026 RMK A01 T10241095  RH  058%=      5-min Rain = 0
KBO1 110144Z 22010KT M03/M10 A3026 RMK A01 T10251095  RH  059%=      5-min Rain = 0
KBO1 110145Z 22011KT M03/M10 A3026 RMK A01 T10261095  RH  059%=      5-min Rain = 0
KBO1 110146Z 22011KT M03/M09 A3026 RMK A01 T10261094  RH  059%=      5-min Rain = 0
KBO1 110147Z 22011KT M03/M09 A3026 RMK A01 T10251093  RH  060%=      5-min Rain = 0
KBO1 110148Z 22011KT M02/M09 A3026 RMK A01 T10241091  RH  060%=      5-min Rain = 0
KBO1 110149Z 22011KT M02/M09 A3026 RMK A01 T10211089  RH  060%=      5-min Rain = 0
KBO1 110150Z 22011KT M02/M09 A3026 RMK A01 T10181088  RH  059%=      5-min Rain = 0
KBO1 110151Z 22010KT M02/M09 A3026 RMK A01 T10161087  RH  058%=      5-min Rain = 0
KBO1 110152Z 22010KT M01/M09 A3026 RMK A01 T10141086  RH  058%=      5-min Rain = 0
KBO1 110153Z 22010KT M01/M09 A3026 RMK A01 T10121086  RH  057%=      5-min Rain = 0
KBO1 110154Z 22010KT M01/M09 A3026 RMK A01 T10111086  RH  057%=      5-min Rain = 0
KBO1 110155Z 22010KT M01/M09 A3026 RMK A01 T10111086  RH  057%=      5-min Rain = 0
KBO1 110156Z 22010KT M01/M09 A3026 RMK A01 T10111087  RH  057%=      5-min Rain = 0
KBO1 110157Z 22010KT M01/M09 A3026 RMK A01 T10121087  RH  057%=      5-min Rain = 0
KBO1 110158Z 22010KT M01/M09 A3026 RMK A01 T10131088  RH  057%=      5-min Rain = 0
KBO1 110159Z 22010KT M01/M09 A3026 RMK A01 T10141088  RH  057%=      5-min Rain = 0
KBO1 110200Z 22011KT M01/M09 A3026 RMK A01 T10141088  RH  057%=      5-min Rain = 0
KBO1 110201Z 22011KT M02/M09 A3026 RMK A01 T10151089  RH  057%=      5-min Rain = 0
KBO1 110202Z 22011KT M02/M09 A3026 RMK A01 T10171089  RH  058%=      5-min Rain = 0
KBO1 110203Z 22011KT M02/M09 A3026 RMK A01 T10181089  RH  058%=      5-min Rain = 0
KBO1 110204Z 22010KT M02/M09 A3026 RMK A01 T10191089  RH  058%=      5-min Rain = 0
KBO1 110205Z 22010KT M02/M09 A3026 RMK A01 T10201090  RH  059%=      5-min Rain = 0
KBO1 110206Z 23010KT M02/M09 A3026 RMK A01 T10201089  RH  059%=      5-min Rain = 0
KBO1 110207Z 22010KT M02/M09 A3026 RMK A01 T10211089  RH  059%=      5-min Rain = 0
KBO1 110208Z 22010KT M02/M09 A3026 RMK A01 T10211089  RH  060%=      5-min Rain = 0
KBO1 110209Z 23011KT M02/M09 A3026 RMK A01 T10211088  RH  060%=      5-min Rain = 0
KBO1 110210Z 23011KT M02/M09 A3026 RMK A01 T10221088  RH  060%=      5-min Rain = 0
KBO1 110211Z 23011KT M02/M09 A3026 RMK A01 T10221088  RH  061%=      5-min Rain = 0
KBO1 110212Z 23011KT M02/M09 A3026 RMK A01 T10221088  RH  061%=      5-min Rain = 0
KBO1 110213Z 23011KT M02/M09 A3026 RMK A01 T10221087  RH  061%=      5-min Rain = 0
KBO1 110214Z 23011KT M02/M09 A3026 RMK A01 T10221086  RH  061%=      5-min Rain = 0
KBO1 110215Z 23011KT M02/M09 A3026 RMK A01 T10211085  RH  062%=      5-min Rain = 0
KBO1 110216Z 23011KT M02/M09 A3026 RMK A01 T10211085  RH  062%=      5-min Rain = 0
KBO1 110217Z 23011KT M02/M08 A3026 RMK A01 T10201084  RH  062%=      5-min Rain = 0
KBO1 110218Z 23011KT M02/M08 A3025 RMK A01 T10201084  RH  062%=      5-min Rain = 0
KBO1 110219Z 23011KT M02/M08 A3025 RMK A01 T10201084  RH  062%=      5-min Rain = 0
KBO1 110220Z 23011KT M02/M08 A3025 RMK A01 T10201084  RH  062%=      5-min Rain = 0
KBO1 110221Z 23011KT M02/M08 A3025 RMK A01 T10201084  RH  062%=      5-min Rain = 0
KBO1 110222Z 23012KT M02/M08 A3025 RMK A01 T10191083  RH  062%=      5-min Rain = 0
KBO1 110223Z 23011KT M02/M08 A3025 RMK A01 T10191083  RH  062%=      5-min Rain = 0
KBO1 110224Z 23012KT M02/M08 A3025 RMK A01 T10181082  RH  062%=      5-min Rain = 0
KBO1 110225Z 23012KT M02/M08 A3025 RMK A01 T10181082  RH  062%=      5-min Rain = 0
KBO1 110226Z 23012KT M02/M08 A3025 RMK A01 T10181082  RH  062%=      5-min Rain = 0
KBO1 110227Z 23011KT M02/M08 A3026 RMK A01 T10181082  RH  062%=      5-min Rain = 0
KBO1 110228Z 23012KT M02/M08 A3026 RMK A01 T10181081  RH  062%=      5-min Rain = 0
KBO1 110229Z 23012KT M02/M08 A3026 RMK A01 T10171081  RH  062%=      5-min Rain = 0
KBO1 110230Z 22011KT M02/M08 A3026 RMK A01 T10171080  RH  062%=      5-min Rain = 0
KBO1 110231Z 22011KT M02/M08 A3026 RMK A01 T10161080  RH  062%=      5-min Rain = 0
KBO1 110232Z 22011KT M02/M08 A3026 RMK A01 T10161079  RH  062%=      5-min Rain = 0
KBO1 110233Z 22011KT M02/M08 A3026 RMK A01 T10161079  RH  062%=      5-min Rain = 0
KBO1 110234Z 23011KT M02/M08 A3026 RMK A01 T10151078  RH  062%=      5-min Rain = 0
KBO1 110235Z 22011KT M02/M08 A3026 RMK A01 T10151078  RH  062%=      5-min Rain = 0
KBO1 110236Z 22011KT M02/M08 A3026 RMK A01 T10151078  RH  062%=      5-min Rain = 0
KBO1 110237Z 22011KT M02/M08 A3025 RMK A01 T10151078  RH  062%=      5-min Rain = 0
KBO1 110238Z 22011KT M01/M08 A3025 RMK A01 T10141077  RH  062%=      5-min Rain = 0
KBO1 110239Z 22011KT M01/M08 A3025 RMK A01 T10141077  RH  062%=      5-min Rain = 0
KBO1 110240Z 22011KT M01/M08 A3025 RMK A01 T10141076  RH  063%=      5-min Rain = 0
KBO1 110241Z 22011KT M01/M08 A3025 RMK A01 T10131075  RH  063%=      5-min Rain = 0
KBO1 110242Z 22011KT M01/M08 A3026 RMK A01 T10131075  RH  062%=      5-min Rain = 0
KBO1 110243Z 22011KT M01/M08 A3026 RMK A01 T10121075  RH  062%=      5-min Rain = 0
KBO1 110244Z 22011KT M01/M08 A3026 RMK A01 T10121075  RH  062%=      5-min Rain = 0
KBO1 110245Z 22011KT M01/M08 A3026 RMK A01 T10131075  RH  062%=      5-min Rain = 0
KBO1 110246Z 22012KT M01/M08 A3026 RMK A01 T10121075  RH  063%=      5-min Rain = 0
KBO1 110247Z 22012KT M01/M07 A3026 RMK A01 T10121074  RH  063%=      5-min Rain = 0
KBO1 110248Z 22011KT M01/M07 A3026 RMK A01 T10111074  RH  063%=      5-min Rain = 0
KBO1 110249Z 23011KT M01/M07 A3026 RMK A01 T10111073  RH  063%=      5-min Rain = 0
KBO1 110250Z 22011KT M01/M07 A3026 RMK A01 T10111073  RH  063%=      5-min Rain = 0
KBO1 110251Z 22012KT M01/M07 A3026 RMK A01 T10111073  RH  063%=      5-min Rain = 0
KBO1 110252Z 22011KT M01/M07 A3026 RMK A01 T10101072  RH  063%=      5-min Rain = 0
KBO1 110253Z 22012KT M01/M07 A3026 RMK A01 T10091072  RH  063%=      5-min Rain = 0
KBO1 110254Z 22012KT M01/M07 A3026 RMK A01 T10091072  RH  062%=      5-min Rain = 0
KBO1 110255Z 22011KT M01/M07 A3026 RMK A01 T10091072  RH  062%=      5-min Rain = 0
KBO1 110256Z 22011KT M01/M07 A3026 RMK A01 T10091072  RH  062%=      5-min Rain = 0
KBO1 110257Z 22011KT M01/M07 A3026 RMK A01 T10101073  RH  062%=      5-min Rain = 0
KBO1 110258Z 22011KT M01/M07 A3026 RMK A01 T10111073  RH  063%=      5-min Rain = 0
KBO1 110259Z 22011KT M01/M07 A3026 RMK A01 T10121073  RH  063%=      5-min Rain = 0
KBO1 110300Z 22011KT M01/M07 A3026 RMK A01 T10121074  RH  063%=      5-min Rain = 0
KBO1 110301Z 22010KT M01/M07 A3026 RMK A01 T10131074  RH  063%=      5-min Rain = 0
KBO1 110302Z 22011KT M01/M07 A3026 RMK A01 T10141074  RH  064%=      5-min Rain = 0
KBO1 110303Z 22011KT M01/M07 A3026 RMK A01 T10141074  RH  064%=      5-min Rain = 0
KBO1 110304Z 22011KT M01/M07 A3025 RMK A01 T10141073  RH  064%=      5-min Rain = 0
KBO1 110305Z 22011KT M01/M07 A3025 RMK A01 T10141073  RH  064%=      5-min Rain = 0
KBO1 110306Z 22012KT M01/M07 A3025 RMK A01 T10131072  RH  064%=      5-min Rain = 0
KBO1 110307Z 22012KT M01/M07 A3025 RMK A01 T10131072  RH  064%=      5-min Rain = 0
KBO1 110308Z 22012KT M01/M07 A3025 RMK A01 T10131071  RH  064%=      5-min Rain = 0
KBO1 110309Z 22012KT M01/M07 A3025 RMK A01 T10111070  RH  064%=      5-min Rain = 0
KBO1 110310Z 22012KT M01/M07 A3025 RMK A01 T10101069  RH  064%=      5-min Rain = 0
KBO1 110311Z 22013KT M01/M07 A3025 RMK A01 T10091070  RH  064%=      5-min Rain = 0
KBO1 110312Z 22013KT M01/M07 A3025 RMK A01 T10081069  RH  063%=      5-min Rain = 0
KBO1 110313Z 22013KT M01/M07 A3025 RMK A01 T10071069  RH  063%=      5-min Rain = 0
KBO1 110314Z 22013KT M01/M07 A3025 RMK A01 T10061068  RH  063%=      5-min Rain = 0
KBO1 110315Z 22013KT M00/M07 A3025 RMK A01 T10041068  RH  062%=      5-min Rain = 0
KBO1 110316Z 22013KT M00/M07 A3025 RMK A01 T10031068  RH  062%=      5-min Rain = 0
KBO1 110317Z 22013KT M00/M07 A3025 RMK A01 T10021067  RH  061%=      5-min Rain = 0
KBO1 110318Z 22013KT 00/07 A3025 RMK A01 T00-00-67  RH  061%=      5-min Rain = 0
KBO1 110319Z 22013KT 00/M07 A3025 RMK A01 T00011067  RH  060%=      5-min Rain = 0
KBO1 110320Z 22013KT 00/M07 A3025 RMK A01 T00021067  RH  060%=      5-min Rain = 0
KBO1 110321Z 22013KT 00/M07 A3025 RMK A01 T00031067  RH  059%=      5-min Rain = 0
KBO1 110322Z 22013KT 00/M07 A3025 RMK A01 T00041067  RH  059%=      5-min Rain = 0
KBO1 110323Z 22012KT 00/M07 A3025 RMK A01 T00031067  RH  059%=      5-min Rain = 0
KBO1 110324Z 22013KT 00/M07 A3025 RMK A01 T00031068  RH  059%=      5-min Rain = 0
KBO1 110325Z 22012KT 00/M07 A3025 RMK A01 T00021068  RH  059%=      5-min Rain = 0
KBO1 110326Z 23013KT 00/M07 A3025 RMK A01 T00011068  RH  060%=      5-min Rain = 0
KBO1 110327Z 23013KT 00/M07 A3025 RMK A01 T00011068  RH  060%=      5-min Rain = 0
KBO1 110328Z 22013KT 00/M07 A3025 RMK A01 T00011068  RH  060%=      5-min Rain = 0
KBO1 110329Z 22013KT 00/M07 A3025 RMK A01 T00011068  RH  060%=      5-min Rain = 0
KBO1 110330Z 23013KT 00/M07 A3025 RMK A01 T00011068  RH  060%=      5-min Rain = 0
KBO1 110331Z 23012KT 00/M07 A3025 RMK A01 T00011068  RH  060%=      5-min Rain = 0
KBO1 110332Z 23012KT 00/M07 A3025 RMK A01 T00011068  RH  060%=      5-min Rain = 0
KBO1 110333Z 23012KT 00/M07 A3025 RMK A01 T00011068  RH  060%=      5-min Rain = 0
KBO1 110334Z 23012KT 00/M07 A3025 RMK A01 T00011067  RH  060%=      5-min Rain = 0
KBO1 110335Z 23012KT 00/M07 A3025 RMK A01 T00011067  RH  060%=      5-min Rain = 0
KBO1 110336Z 23012KT 00/07 A3025 RMK A01 T00000-68  RH  060%=      5-min Rain = 0
KBO1 110337Z 23012KT 00/07 A3025 RMK A01 T00000-68  RH  060%=      5-min Rain = 0
KBO1 110338Z 22013KT 00/07 A3025 RMK A01 T00000-68  RH  060%=      5-min Rain = 0
KBO1 110339Z 22012KT 00/07 A3025 RMK A01 T00000-68  RH  060%=      5-min Rain = 0
KBO1 110340Z 22012KT 00/M07 A3025 RMK A01 T00011067  RH  060%=      5-min Rain = 0
KBO1 110341Z 22012KT 00/M07 A3025 RMK A01 T00011067  RH  060%=      5-min Rain = 0
KBO1 110342Z 22012KT 00/M07 A3025 RMK A01 T00011067  RH  060%=      5-min Rain = 0
KBO1 110343Z 22012KT 00/M07 A3025 RMK A01 T00011067  RH  060%=      5-min Rain = 0
KBO1 110344Z 22012KT 00/M07 A3025 RMK A01 T00011066  RH  060%=      5-min Rain = 0
KBO1 110345Z 22012KT 00/M07 A3025 RMK A01 T00021066  RH  060%=      5-min Rain = 0
KBO1 110346Z 22012KT 00/M07 A3025 RMK A01 T00021065  RH  060%=      5-min Rain = 0
KBO1 110347Z 22012KT 00/M07 A3025 RMK A01 T00031065  RH  060%=      5-min Rain = 0
KBO1 110348Z 22012KT 00/M07 A3025 RMK A01 T00031066  RH  060%=      5-min Rain = 0
KBO1 110349Z 22012KT 00/M07 A3025 RMK A01 T00031066  RH  060%=      5-min Rain = 0
KBO1 110350Z 22013KT 00/M07 A3025 RMK A01 T00021066  RH  060%=      5-min Rain = 0
KBO1 110351Z 22012KT 00/M07 A3025 RMK A01 T00021065  RH  061%=      5-min Rain = 0
KBO1 110352Z 22013KT 00/M07 A3025 RMK A01 T00021065  RH  061%=      5-min Rain = 0
KBO1 110353Z 22013KT 00/M06 A3025 RMK A01 T00031064  RH  061%=      5-min Rain = 0
KBO1 110354Z 22012KT 00/M07 A3025 RMK A01 T00021065  RH  061%=      5-min Rain = 0
KBO1 110355Z 22013KT 00/M07 A3025 RMK A01 T00021065  RH  061%=      5-min Rain = 0
KBO1 110356Z 22013KT 00/M06 A3025 RMK A01 T00031064  RH  061%=      5-min Rain = 0
KBO1 110357Z 22013KT 00/M06 A3025 RMK A01 T00031064  RH  061%=      5-min Rain = 0
KBO1 110358Z 22013KT 00/M06 A3025 RMK A01 T00031064  RH  061%=      5-min Rain = 0
KBO1 110359Z 22013KT 00/M06 A3025 RMK A01 T00031064  RH  061%=      5-min Rain = 0
KBO1 110400Z 22013KT 00/M06 A3025 RMK A01 T00031064  RH  061%=      5-min Rain = 0
KBO1 110401Z 22013KT 00/M06 A3025 RMK A01 T00031064  RH  061%=      5-min Rain = 0
KBO1 110402Z 22013KT 00/M06 A3025 RMK A01 T00031064  RH  061%=      5-min Rain = 0
KBO1 110403Z 22012KT 00/M06 A3025 RMK A01 T00031064  RH  061%=      5-min Rain = 0
KBO1 110404Z 22013KT 00/M06 A3025 RMK A01 T00031064  RH  061%=      5-min Rain = 0
KBO1 110405Z 22013KT 00/M06 A3025 RMK A01 T00031064  RH  061%=      5-min Rain = 0
KBO1 110406Z 22014KT 00/M06 A3025 RMK A01 T00031064  RH  061%=      5-min Rain = 0
KBO1 110407Z 22014KT 00/M06 A3025 RMK A01 T00031064  RH  061%=      5-min Rain = 0
KBO1 110408Z 23014KT 00/M06 A3025 RMK A01 T00031064  RH  061%=      5-min Rain = 0
KBO1 110409Z 22014KT 00/M06 A3025 RMK A01 T00031064  RH  061%=      5-min Rain = 0
KBO1 110410Z 22014KT 00/M06 A3025 RMK A01 T00021064  RH  061%=      5-min Rain = 0
KBO1 110411Z 22014KT 00/M06 A3024 RMK A01 T00011064  RH  061%=      5-min Rain = 0
KBO1 110412Z 23013KT 00/M07 A3024 RMK A01 T00011065  RH  061%=      5-min Rain = 0
KBO1 110413Z 22014KT 00/06 A3024 RMK A01 T00000-64  RH  062%=      5-min Rain = 0
KBO1 110414Z 23013KT 00/06 A3024 RMK A01 T00000-64  RH  062%=      5-min Rain = 0
KBO1 110415Z 23013KT 00/06 A3024 RMK A01 T00-00-64  RH  062%=      5-min Rain = 0
KBO1 110416Z 23013KT M00/M06 A3024 RMK A01 T10011064  RH  062%=      5-min Rain = 0
KBO1 110417Z 22014KT M00/M06 A3024 RMK A01 T10011064  RH  062%=      5-min Rain = 0
KBO1 110418Z 22013KT M00/M06 A3024 RMK A01 T10011064  RH  062%=      5-min Rain = 0
KBO1 110419Z 23013KT M00/M06 A3024 RMK A01 T10011064  RH  062%=      5-min Rain = 0
KBO1 110420Z 23013KT M00/M06 A3024 RMK A01 T10011064  RH  062%=      5-min Rain = 0
KBO1 110421Z 23014KT 00/06 A3024 RMK A01 T00000-63  RH  062%=      5-min Rain = 0
KBO1 110422Z 23014KT 00/06 A3024 RMK A01 T00000-63  RH  062%=      5-min Rain = 0
KBO1 110423Z 23014KT 00/M06 A3024 RMK A01 T00011062  RH  062%=      5-min Rain = 0
KBO1 110424Z 22015KT 00/M06 A3024 RMK A01 T00011061  RH  063%=      5-min Rain = 0
KBO1 110425Z 23014KT 00/M06 A3024 RMK A01 T00021061  RH  063%=      5-min Rain = 0
KBO1 110426Z 23014KT 00/M06 A3024 RMK A01 T00021060  RH  063%=      5-min Rain = 0
KBO1 110427Z 22014KT 00/M06 A3024 RMK A01 T00011061  RH  063%=      5-min Rain = 0
KBO1 110428Z 23015KT 00/M06 A3024 RMK A01 T00011060  RH  064%=      5-min Rain = 0
KBO1 110429Z 23015KT 00/M06 A3024 RMK A01 T00011059  RH  064%=      5-min Rain = 0
KBO1 110430Z 23015KT 00/M06 A3024 RMK A01 T00011059  RH  064%=      5-min Rain = 0
KBO1 110431Z 23014KT 00/M06 A3024 RMK A01 T00011058  RH  064%=      5-min Rain = 0
KBO1 110432Z 23015KT 00/06 A3024 RMK A01 T00000-58  RH  065%=      5-min Rain = 0
KBO1 110433Z 23015KT 00/06 A3024 RMK A01 T00-00-59  RH  065%=      5-min Rain = 0
KBO1 110434Z 23015KT 00/06 A3024 RMK A01 T00-00-59  RH  065%=      5-min Rain = 0
KBO1 110435Z 23015KT M00/M06 A3024 RMK A01 T10011058  RH  065%=      5-min Rain = 0
KBO1 110436Z 23015KT 00/06 A3024 RMK A01 T00-00-57  RH  066%=      5-min Rain = 0
KBO1 110437Z 23015KT 00/M06 A3024 RMK A01 T00011056  RH  066%=      5-min Rain = 0
KBO1 110438Z 23015KT 00/M06 A3024 RMK A01 T00011055  RH  066%=      5-min Rain = 0
KBO1 110439Z 23015KT 00/M05 A3024 RMK A01 T00021054  RH  066%=      5-min Rain = 0
KBO1 110440Z 23015KT 00/M05 A3024 RMK A01 T00021054  RH  066%=      5-min Rain = 0
KBO1 110441Z 23015KT 00/M05 A3024 RMK A01 T00021054  RH  066%=      5-min Rain = 0
KBO1 110442Z 23015KT 00/M05 A3024 RMK A01 T00011053  RH  067%=      5-min Rain = 0
KBO1 110443Z 23015KT 00/M05 A3024 RMK A01 T00011053  RH  067%=      5-min Rain = 0
KBO1 110444Z 23015KT 00/M05 A3024 RMK A01 T00011054  RH  067%=      5-min Rain = 0
KBO1 110445Z 23015KT 00/05 A3024 RMK A01 T00000-54  RH  067%=      5-min Rain = 0
KBO1 110446Z 23014KT 00/05 A3024 RMK A01 T00-00-54  RH  067%=      5-min Rain = 0
KBO1 110447Z 23014KT M00/M05 A3024 RMK A01 T10011054  RH  067%=      5-min Rain = 0
KBO1 110448Z 23014KT M00/M05 A3024 RMK A01 T10011054  RH  067%=      5-min Rain = 0
KBO1 110449Z 23014KT M00/M05 A3024 RMK A01 T10021054  RH  068%=      5-min Rain = 0
KBO1 110450Z 23013KT M00/M05 A3024 RMK A01 T10021054  RH  068%=      5-min Rain = 0
KBO1 110451Z 23014KT M00/M05 A3024 RMK A01 T10021053  RH  068%=      5-min Rain = 0
KBO1 110452Z 23014KT M00/M05 A3024 RMK A01 T10031053  RH  069%=      5-min Rain = 0
KBO1 110453Z 23014KT M00/M05 A3024 RMK A01 T10031052  RH  069%=      5-min Rain = 0
KBO1 110454Z 23014KT M00/M05 A3024 RMK A01 T10031052  RH  070%=      5-min Rain = 0
KBO1 110455Z 23015KT M00/M05 A3024 RMK A01 T10031050  RH  071%=      5-min Rain = 0
KBO1 110456Z 23014KT M00/M05 A3024 RMK A01 T10031050  RH  071%=      5-min Rain = 0
KBO1 110457Z 23014KT M00/M05 A3024 RMK A01 T10031050  RH  071%=      5-min Rain = 0
KBO1 110458Z 23014KT M00/M05 A3024 RMK A01 T10041050  RH  071%=      5-min Rain = 0
KBO1 110459Z 23015KT M01/M05 A3024 RMK A01 T10051050  RH  072%=      5-min Rain = 0
KBO1 110500Z 23014KT M01/M05 A3024 RMK A01 T10051050  RH  072%=      5-min Rain = 0
KBO1 110501Z 23014KT M01/M05 A3024 RMK A01 T10061050  RH  072%=      5-min Rain = 0
KBO1 110502Z 23013KT M01/M05 A3024 RMK A01 T10061050  RH  072%=      5-min Rain = 0
KBO1 110503Z 23014KT M01/M05 A3024 RMK A01 T10071050  RH  073%=      5-min Rain = 0
KBO1 110504Z 23014KT M01/M05 A3024 RMK A01 T10071049  RH  073%=      5-min Rain = 0
KBO1 110505Z 23014KT M01/M05 A3024 RMK A01 T10071049  RH  073%=      5-min Rain = 0
KBO1 110506Z 23014KT M01/M05 A3024 RMK A01 T10071048  RH  074%=      5-min Rain = 0
KBO1 110507Z 23014KT M01/M05 A3024 RMK A01 T10071048  RH  074%=      5-min Rain = 0
KBO1 110508Z 22014KT M01/M05 A3024 RMK A01 T10061047  RH  074%=      5-min Rain = 0
KBO1 110509Z 22014KT M01/M05 A3024 RMK A01 T10051047  RH  074%=      5-min Rain = 0
KBO1 110510Z 22013KT M01/M05 A3024 RMK A01 T10051047  RH  074%=      5-min Rain = 0
KBO1 110511Z 22013KT M01/M05 A3024 RMK A01 T10051046  RH  073%=      5-min Rain = 0
KBO1 110512Z 22014KT M01/M05 A3024 RMK A01 T10051046  RH  074%=      5-min Rain = 0
KBO1 110513Z 22014KT M00/M05 A3024 RMK A01 T10041045  RH  074%=      5-min Rain = 0
KBO1 110514Z 22015KT M00/M04 A3024 RMK A01 T10041044  RH  074%=      5-min Rain = 0
KBO1 110515Z 22015KT M00/M04 A3024 RMK A01 T10031042  RH  075%=      5-min Rain = 0
KBO1 110516Z 22015KT M00/M04 A3024 RMK A01 T10021041  RH  075%=      5-min Rain = 0
KBO1 110517Z 23014KT M00/M04 A3024 RMK A01 T10011040  RH  075%=      5-min Rain = 0
KBO1 110518Z 22015KT 00/04 A3024 RMK A01 T00-00-40  RH  075%=      5-min Rain = 0
KBO1 110519Z 22014KT 00/04 A3024 RMK A01 T00-00-40  RH  075%=      5-min Rain = 0
KBO1 110520Z 23013KT 00/04 A3024 RMK A01 T00000-40  RH  075%=      5-min Rain = 0
KBO1 110521Z 22013KT 00/04 A3024 RMK A01 T00000-40  RH  074%=      5-min Rain = 0
KBO1 110522Z 22013KT 00/M04 A3024 RMK A01 T00011039  RH  075%=      5-min Rain = 0
KBO1 110523Z 22013KT 00/M04 A3024 RMK A01 T00011039  RH  075%=      5-min Rain = 0
KBO1 110524Z 22012KT 00/M04 A3024 RMK A01 T00011039  RH  075%=      5-min Rain = 0
KBO1 110525Z 22012KT 00/M04 A3024 RMK A01 T00011039  RH  075%=      5-min Rain = 0
KBO1 110526Z 22012KT 00/M04 A3024 RMK A01 T00021039  RH  074%=      5-min Rain = 0
KBO1 110527Z 22012KT 00/M04 A3024 RMK A01 T00021039  RH  074%=      5-min Rain = 0
KBO1 110528Z 22011KT 00/M04 A3024 RMK A01 T00031039  RH  074%=      5-min Rain = 0
KBO1 110529Z 22011KT 00/M04 A3024 RMK A01 T00041038  RH  073%=      5-min Rain = 0
KBO1 110530Z 22010KT 00/M04 A3024 RMK A01 T00041039  RH  073%=      5-min Rain = 0
KBO1 110531Z 22009KT 00/M04 A3024 RMK A01 T00031039  RH  073%=      5-min Rain = 0
KBO1 110532Z 22010KT 00/M04 A3023 RMK A01 T00021039  RH  074%=      5-min Rain = 0
KBO1 110533Z 22011KT 00/M04 A3023 RMK A01 T00021037  RH  075%=      5-min Rain = 0
KBO1 110534Z 22012KT 00/M04 A3023 RMK A01 T00021037  RH  075%=      5-min Rain = 0
KBO1 110535Z 22012KT 00/M04 A3023 RMK A01 T00031035  RH  076%=      5-min Rain = 0
KBO1 110536Z 22013KT 00/M03 A3023 RMK A01 T00041033  RH  076%=      5-min Rain = 0
KBO1 110537Z 22012KT 01/M03 A3023 RMK A01 T00051032  RH  076%=      5-min Rain = 0
KBO1 110538Z 22013KT 01/M03 A3023 RMK A01 T00061032  RH  076%=      5-min Rain = 0
KBO1 110539Z 22013KT 01/M03 A3023 RMK A01 T00051032  RH  076%=      5-min Rain = 0
KBO1 110540Z 22013KT 01/M03 A3023 RMK A01 T00061032  RH  076%=      5-min Rain = 0
KBO1 110541Z 22014KT 01/M03 A3023 RMK A01 T00061031  RH  076%=      5-min Rain = 0
KBO1 110542Z 22013KT 01/M03 A3023 RMK A01 T00071030  RH  076%=      5-min Rain = 0
KBO1 110543Z 22014KT 01/M03 A3023 RMK A01 T00071030  RH  076%=      5-min Rain = 0
KBO1 110544Z 22014KT 01/M03 A3022 RMK A01 T00081030  RH  076%=      5-min Rain = 0
KBO1 110545Z 22014KT 01/M03 A3022 RMK A01 T00081030  RH  076%=      5-min Rain = 0
KBO1 110546Z 22014KT 01/M03 A3022 RMK A01 T00081030  RH  076%=      5-min Rain = 0
KBO1 110547Z 22014KT 01/M03 A3022 RMK A01 T00081030  RH  076%=      5-min Rain = 0
KBO1 110548Z 22015KT 01/M03 A3022 RMK A01 T00081030  RH  076%=      5-min Rain = 0
KBO1 110549Z 22015KT 01/M03 A3022 RMK A01 T00081029  RH  076%=      5-min Rain = 0
KBO1 110550Z 22014KT 01/M03 A3022 RMK A01 T00081029  RH  076%=      5-min Rain = 0
KBO1 110551Z 22014KT 01/M03 A3022 RMK A01 T00081029  RH  076%=      5-min Rain = 0
KBO1 110552Z 22014KT 01/M03 A3022 RMK A01 T00081029  RH  076%=      5-min Rain = 0
KBO1 110553Z 22013KT 01/M03 A3022 RMK A01 T00081030  RH  076%=      5-min Rain = 0
KBO1 110554Z 22014KT 01/M03 A3022 RMK A01 T00071030  RH  076%=      5-min Rain = 0
KBO1 110555Z 22014KT 01/M03 A3022 RMK A01 T00071029  RH  077%=      5-min Rain = 0
KBO1 110556Z 23014KT 01/M03 A3022 RMK A01 T00081029  RH  076%=      5-min Rain = 0
KBO1 110557Z 23017KT 01/M03 A3022 RMK A01 T00081029  RH  076%=      5-min Rain = 0
KBO1 110558Z 23017KT 01/M03 A3022 RMK A01 T00101028  RH  076%=      5-min Rain = 0
KBO1 110559Z 23018KT 01/M03 A3021 RMK A01 T00101027  RH  076%=      5-min Rain = 0

Page generated in 0.0361 seconds.